GFSNE_700_rhum_000.txt.gz
RH
36 38 40 40 39 42 44 44 40 39 46 44 34 33 31 51 40 43 55 57 70 78 79 68 62 59 57 56 58 60 65 72 76 69 50 2 4 8
44 43 43 43 42 40 43 38 38 41 48 48 46 43 43 37 65 74 76 76 71 65 66 59 59 75 78 57 60 66 71 73 74 72 14 3 8 14
57 60 62 59 51 48 46 45 52 47 58 44 53 52 47 48 65 94 76 74 72 55 45 45 61 71 71 58 63 69 73 74 76 48 2 7 14 14
66 66 73 73 72 76 87 83 90 89 58 49 58 56 52 54 76 97 99 81 82 56 41 48 64 77 90 60 64 73 73 77 75 8 5 11 16 9
70 70 65 65 67 78 77 79 68 68 69 72 62 63 78 71 74 98 99 95 93 72 54 55 66 89 98 67 69 75 80 83 46 5 10 16 12 10
60 65 71 74 76 71 55 64 66 67 76 84 80 71 79 84 88 99 97 95 99 96 78 64 62 100 90 63 75 75 80 80 11 7 15 16 11 12
44 61 71 76 75 78 66 61 75 77 96 93 85 96 89 93 91 98 99 99 98 99 94 73 93 96 72 63 69 77 88 31 6 12 18 12 13 16
48 52 67 81 86 88 78 64 65 79 99 99 98 90 94 98 99 98 99 99 99 96 99 86 88 84 67 67 71 82 68 6 10 17 13 12 16 20
46 50 63 66 76 93 92 81 63 64 93 98 94 98 92 96 100 98 99 99 99 99 99 99 97 89 74 74 76 84 17 7 16 16 12 15 20 29
48 48 49 59 69 87 99 93 82 65 71 84 89 97 89 100 99 99 99 99 98 98 99 98 94 87 78 81 85 50 6 12 18 13 14 18 26 36
49 44 44 46 57 59 66 88 89 81 77 85 96 97 98 97 99 99 98 99 98 99 98 98 93 82 88 89 72 8 8 19 15 13 17 25 32 38
55 46 44 46 46 56 74 84 88 86 82 84 93 92 96 98 99 99 97 96 99 99 99 98 96 94 91 86 18 7 16 15 12 18 25 31 39 48
63 51 46 49 56 56 78 92 91 99 96 98 92 93 97 98 99 99 99 99 98 99 98 96 84 87 95 25 7 15 12 12 21 28 36 43 50 54
68 55 53 61 61 64 83 91 100 98 84 90 95 96 99 97 99 99 99 99 99 98 98 97 88 93 35 8 14 12 14 26 32 42 46 52 54 51
71 58 55 70 77 73 90 86 100 84 97 96 99 92 99 99 98 98 99 99 99 98 96 94 94 57 7 13 11 20 29 40 46 48 49 51 52 52
72 58 54 64 82 93 91 100 100 98 96 98 99 99 99 100 98 99 99 99 98 96 96 93 62 9 13 12 21 32 34 40 47 48 46 52 57 57
80 71 61 64 67 90 95 99 98 96 94 99 98 99 99 99 99 98 99 98 97 90 93 74 11 14 12 23 31 32 38 44 46 50 50 50 63 61
82 73 69 89 89 87 95 99 98 96 95 98 98 98 98 98 99 99 98 98 92 95 86 14 14 13 23 31 35 39 40 45 49 58 62 56 59 76
66 69 72 90 94 94 95 97 98 99 98 99 98 98 98 98 99 98 98 97 93 83 14 15 12 22 30 36 42 43 43 50 53 56 62 65 72 79
42 60 60 84 95 96 96 97 98 98 98 98 97 99 97 97 97 98 97 98 74 12 15 12 22 30 35 38 43 54 54 51 58 64 77 84 85 88
33 46 48 67 95 96 96 97 98 98 98 98 97 97 97 96 97 97 100 61 11 15 11 24 33 37 39 43 46 51 71 74 75 71 69 70 84 95
24 33 42 52 94 95 96 96 96 97 98 97 96 97 97 97 98 100 52 10 15 11 25 33 37 40 44 50 56 60 65 74 89 94 93 80 80 81
18 25 38 44 79 95 96 96 96 97 97 97 97 97 97 97 100 52 10 16 11 24 33 39 42 42 48 61 62 72 90 92 89 94 97 86 80 81

GFSNE_700_rhum_003.txt.gz
RH
62 67 72 71 72 73 72 69 78 78 59 50 42 46 48 50 47 46 48 51 89 92 77 74 64 69 85 81 68 71 92 78 57 58 60 67 71 73
66 63 63 72 74 75 81 82 89 97 82 69 56 50 55 54 52 58 59 66 80 85 96 94 92 93 98 81 78 78 95 74 56 57 65 72 72 74
65 71 71 70 70 74 77 78 81 85 92 84 84 85 77 81 65 57 54 53 78 95 94 95 98 99 95 71 86 74 91 88 62 62 66 71 79 50
46 54 56 59 61 63 66 71 75 78 86 79 76 78 79 80 80 57 57 62 65 92 93 99 88 97 99 88 91 86 81 99 64 64 68 75 78 11
24 26 28 39 46 62 72 76 78 81 85 90 80 81 84 97 99 75 71 74 78 78 99 88 92 99 98 99 98 92 99 78 64 67 69 82 39 8
28 28 30 35 42 47 61 76 83 87 84 86 92 80 90 93 96 97 79 76 85 95 95 99 100 98 92 99 99 90 99 72 79 72 77 67 8 12
33 35 38 38 37 45 63 63 75 82 82 82 86 89 90 100 80 99 97 94 96 98 97 100 99 98 99 99 92 98 91 90 78 80 82 16 10 16
46 46 48 47 45 45 48 65 73 88 96 91 84 85 82 87 94 99 84 99 99 99 99 99 99 99 99 99 95 98 95 85 80 85 38 8 15 15
66 64 56 57 56 52 46 45 55 65 82 98 96 90 86 83 98 98 81 90 99 98 99 99 99 99 98 99 98 98 90 85 86 54 7 13 17 12
91 88 77 66 65 58 49 42 39 40 54 62 61 70 80 90 91 90 98 98 99 99 99 99 99 99 98 100 98 91 87 88 62 8 11 18 13 13
83 92 91 80 76 67 59 48 41 38 46 56 64 70 77 100 97 98 93 98 98 97 99 99 99 99 98 98 97 93 92 67 8 10 16 11 12 19
76 85 90 90 79 69 62 53 44 40 41 44 56 82 76 97 97 99 95 98 99 99 99 99 99 99 98 98 93 93 73 7 8 13 10 15 20 23
39 61 80 92 83 72 63 62 60 54 46 50 60 91 100 90 100 97 99 99 99 99 99 99 99 98 97 96 89 70 8 9 12 12 22 26 31 37
28 35 61 87 86 73 62 70 73 75 83 70 71 81 100 94 99 99 99 99 99 98 98 98 98 98 97 88 70 10 10 11 17 26 30 35 43 47
25 28 47 81 86 69 65 67 80 92 92 96 99 98 100 97 98 98 98 98 98 98 98 98 98 96 91 61 8 13 12 21 28 33 37 41 46 41
20 22 40 74 84 71 76 85 81 85 93 99 96 100 98 97 98 98 98 98 98 98 98 98 93 91 33 10 15 13 22 29 32 40 44 45 49 51
19 20 32 55 74 67 80 89 88 81 90 98 97 100 98 97 98 98 98 98 98 98 97 95 81 21 14 16 14 21 29 39 44 45 44 42 52 62
16 21 26 39 58 56 82 88 89 88 95 97 100 97 97 98 97 98 97 97 97 97 100 65 18 15 14 15 24 32 39 39 40 44 49 49 50 65
17 18 22 31 44 43 86 95 92 96 98 98 97 97 97 97 97 96 97 97 97 98 45 16 16 12 20 27 38 37 36 38 40 48 62 71 80 85
16 17 20 25 35 38 89 94 95 96 96 96 97 97 97 97 96 97 97 97 96 29 16 14 14 24 35 40 38 36 41 50 62 68 70 70 80 88
16 16 16 20 31 36 93 95 96 96 96 97 97 96 97 96 97 97 97 79 20 16 10 21 32 39 39 37 44 56 68 67 79 94 91 82 90 97
16 15 14 18 28 35 88 96 96 95 96 97 97 96 96 96 97 97 45 17 14 14 27 38 40 38 44 54 59 74 91 96 88 79 79 68 61 78
17 14 13 19 26 41 93 96 96 96 95 96 96 96 96 97 97 29 17 10 21 34 39 38 39 52 61 73 89 90 67 45 43 46 46 65 68 80

GFSNE_700_rhum_006.txt.gz
RH
49 54 64 68 67 64 66 83 86 82 77 75 78 74 70 66 72 68 74 60 78 74 58 60 62 57 52 64 70 74 80 80 79 71 64 85 74 65
37 38 44 51 53 58 66 70 75 82 79 74 76 80 80 82 78 75 73 75 90 83 64 66 72 78 74 76 77 79 80 84 86 65 89 95 80 69
30 27 25 26 27 32 47 57 60 67 74 56 74 77 80 73 74 79 76 74 82 83 66 66 62 86 98 96 81 88 99 89 83 86 84 100 100 92
33 32 30 30 28 27 32 40 48 58 74 69 48 52 67 72 69 73 71 79 80 86 74 65 58 80 94 99 93 99 99 99 92 93 100 96 99 88
24 27 27 29 31 35 38 36 35 36 44 57 46 52 59 68 75 73 73 77 85 98 99 75 69 71 84 97 99 99 99 98 94 99 97 81 98 70
14 23 25 30 36 38 44 42 44 47 47 61 71 64 70 65 72 75 72 72 74 96 99 99 96 94 100 98 97 95 99 99 99 99 100 97 96 85
2 4 9 29 45 54 58 50 54 55 46 55 64 92 97 98 93 81 80 86 82 92 96 99 99 99 95 98 99 99 98 99 99 99 98 97 93 80
5 6 6 17 48 59 66 69 68 64 57 54 51 50 56 68 96 95 96 93 85 63 79 90 99 98 99 99 99 98 98 99 99 98 98 96 79 86
12 15 17 35 52 87 83 76 70 69 66 59 53 46 47 49 72 85 83 79 91 97 99 94 99 97 99 99 99 99 99 98 98 99 98 86 85 72
12 17 33 39 52 100 90 84 81 74 68 61 54 47 50 45 53 62 97 90 88 98 97 100 100 98 94 100 98 98 98 98 99 98 88 85 73 12
9 9 19 26 33 72 94 90 84 78 73 62 52 46 47 53 67 99 93 100 96 98 98 97 99 97 99 99 98 98 98 98 98 94 85 71 10 14
11 9 11 17 25 32 65 92 89 85 75 60 48 44 56 59 74 100 92 98 99 99 99 99 99 99 99 99 98 98 98 98 95 86 62 8 14 12
13 12 11 15 22 26 42 89 95 94 79 68 64 60 61 55 67 76 96 98 98 98 99 98 99 99 98 98 98 98 98 96 90 36 8 12 11 16
17 14 14 17 22 25 37 79 96 92 89 79 76 69 90 91 98 100 93 99 98 99 100 99 98 97 98 98 98 98 97 80 21 10 12 13 22 27
22 16 14 15 20 24 38 78 95 88 92 92 88 84 99 99 100 96 98 98 98 99 98 98 97 98 98 97 97 97 84 29 12 14 20 28 33 36
24 17 13 13 17 24 38 81 79 92 98 95 88 82 97 97 98 97 98 97 97 97 96 96 97 97 97 97 97 65 16 14 17 27 32 34 37 40
32 23 14 13 15 23 36 70 48 93 96 97 94 98 100 97 97 97 97 96 96 97 97 97 97 97 97 87 25 14 15 24 30 33 40 42 40 43
36 27 15 14 16 21 32 40 48 94 96 97 98 97 97 97 96 97 96 96 96 97 97 97 97 86 25 16 16 19 28 34 40 42 41 43 47 53
42 31 18 16 16 19 27 32 59 96 96 96 96 96 97 97 96 96 96 96 97 97 97 94 22 18 15 18 26 35 42 42 38 39 44 51 60 72
40 32 20 17 15 17 26 33 72 96 95 96 96 96 96 96 96 96 96 97 97 96 39 18 14 16 26 38 43 40 39 43 50 62 72 74 79 83
36 34 23 17 14 18 26 40 93 96 96 96 96 96 96 96 96 96 96 96 80 23 14 16 28 40 44 42 43 51 56 65 79 91 94 92 96 100
40 38 24 16 14 21 24 58 96 95 95 96 96 96 96 96 96 96 94 33 15 15 28 40 43 44 50 57 66 77 94 92 71 59 65 81 84 80
44 40 23 14 14 22 30 86 96 96 95 96 96 96 96 96 87 22 17 14 31 43 44 45 56 64 75 93 91 88 57 31 31 54 62 63 92 91

GFSNE_700_rhum_009.txt.gz
RH
40 39 39 39 39 38 39 48 83 74 61 55 60 60 63 68 76 78 73 74 86 85 87 97 93 85 75 77 55 52 57 63 75 87 98 98 96 88
38 37 38 41 40 38 34 31 34 68 79 53 58 61 65 70 68 68 68 70 68 79 95 99 99 98 93 86 64 59 59 58 75 96 98 97 95 80
26 27 28 32 34 36 38 40 40 42 45 29 32 32 35 38 42 58 65 65 67 61 68 83 97 99 99 99 88 80 74 65 75 90 99 98 95 85
0 0 3 9 13 18 21 26 35 42 55 48 30 33 32 30 30 35 66 69 74 72 76 73 76 90 99 99 92 81 83 80 90 98 99 97 95 99
5 4 4 2 2 3 5 5 13 21 36 60 51 35 36 36 40 45 65 75 67 69 72 74 75 74 93 96 99 82 81 92 97 99 97 100 99 99
6 5 5 4 4 4 5 5 7 14 28 50 56 45 42 38 49 50 47 78 100 91 82 77 75 84 85 70 98 99 94 96 99 99 99 99 99 99
7 6 6 5 6 6 10 8 22 42 47 72 73 66 51 47 57 53 52 48 44 51 52 88 74 82 80 91 84 98 99 96 99 97 99 99 99 99
9 8 6 6 6 6 6 11 51 99 95 97 91 90 75 76 66 59 54 51 42 45 43 48 70 56 85 96 96 91 99 99 99 99 99 98 99 99
11 10 8 8 7 8 7 6 10 33 66 96 92 88 83 83 74 64 57 51 44 40 45 40 56 53 69 93 99 88 96 99 99 98 99 99 98 98
11 11 11 11 11 12 10 9 8 14 26 57 81 93 93 93 76 65 57 52 45 40 47 60 78 62 63 78 98 98 97 99 99 99 99 98 98 98
12 14 16 16 15 14 13 11 12 17 25 32 52 79 91 94 76 70 65 75 56 44 48 82 68 96 90 82 99 98 98 98 98 98 98 98 98 98
20 17 18 23 20 18 14 16 36 37 30 27 50 71 83 93 75 85 97 100 88 70 54 100 75 95 90 98 98 98 99 98 98 97 97 98 98 97
27 31 30 26 25 20 15 18 24 29 30 57 68 78 84 90 83 80 98 100 98 100 100 100 100 98 100 98 99 98 98 98 98 97 97 97 97 96
37 33 29 32 31 22 16 18 24 30 41 53 86 89 96 94 95 94 100 99 97 98 100 99 96 98 99 98 98 98 98 98 97 97 98 97 61 17
37 31 34 36 32 24 18 20 24 30 34 84 94 96 95 92 93 90 100 98 98 98 97 97 97 98 98 97 97 98 98 97 97 97 95 70 16 14
37 31 37 38 40 28 18 20 23 30 80 84 93 96 94 96 98 100 99 97 96 96 96 97 97 97 97 96 97 97 97 97 97 92 29 15 18 27
52 38 36 41 37 24 17 19 23 40 70 81 96 96 94 97 100 97 97 96 96 96 96 96 96 96 96 96 97 97 96 80 33 18 22 30 35 39
42 42 44 46 42 24 17 17 21 32 56 95 96 95 95 96 96 96 96 96 95 96 96 96 96 96 97 96 82 35 19 18 22 31 35 39 43 44
45 44 49 46 41 24 20 18 22 34 90 96 95 96 95 96 96 96 96 96 96 96 96 97 96 91 41 22 18 18 20 29 39 43 45 44 45 47
43 47 50 47 40 24 20 20 24 62 96 96 96 96 96 96 96 96 96 95 96 96 94 68 28 22 18 19 27 38 45 45 42 42 44 47 54 63
43 50 52 47 38 24 21 22 40 95 96 96 96 96 96 96 96 96 96 96 94 47 25 19 20 34 45 45 42 42 46 53 64 70 75 82 85 86
53 52 50 46 34 22 20 23 85 96 96 96 96 97 96 96 96 96 94 44 19 16 35 48 48 45 49 58 64 69 81 94 97 86 78 86 94 96
55 53 47 44 27 21 23 43 96 96 96 96 96 96 96 95 68 27 16 28 50 51 50 57 67 70 83 91 77 76 73 47 28 25 33 47 81 95

GFSNE_700_rhum_012.txt.gz
RH
40 34 29 28 21 22 32 40 52 52 40 30 36 34 35 33 31 35 45 61 70 66 66 82 96 99 100 100 98 91 81 78 78 79 77 84 94 99
13 10 7 5 4 1 2 10 27 48 55 21 20 26 27 33 34 35 35 34 35 47 60 67 66 77 94 100 100 98 98 90 89 89 79 81 81 88
12 10 9 8 7 6 5 4 4 20 58 4 9 7 7 11 10 24 28 34 37 33 38 52 61 66 68 82 98 99 99 99 99 97 84 96 90 77
12 11 10 9 8 7 6 5 6 10 26 9 5 6 6 6 7 9 10 23 35 38 62 52 67 66 75 75 76 85 93 98 99 99 99 96 99 84
12 13 12 11 10 9 8 7 6 7 8 11 5 5 5 5 6 9 15 16 30 37 46 54 70 94 79 80 80 78 81 81 96 99 99 99 100 96
17 18 18 17 14 12 10 8 8 8 8 9 6 5 4 4 8 13 9 22 25 42 48 50 51 62 89 83 91 92 86 74 80 70 79 99 99 100
21 25 23 20 16 14 12 10 10 9 8 8 7 6 5 4 8 15 23 29 26 48 52 56 53 48 45 42 42 75 80 86 90 80 66 93 99 99
28 26 22 18 15 13 11 13 17 19 16 12 11 10 7 8 16 23 41 55 36 59 58 47 50 46 45 40 39 62 63 94 90 97 95 97 99 98
24 20 16 14 13 13 16 23 25 22 19 17 15 12 14 22 42 47 56 80 71 72 77 56 55 46 43 40 35 41 52 75 96 100 90 99 98 99
18 15 14 14 18 25 31 32 30 26 20 13 25 75 80 91 81 44 80 88 77 76 75 61 53 45 40 39 38 51 64 62 71 99 99 91 99 99
15 16 23 25 24 32 45 38 32 24 15 12 22 41 51 38 62 76 89 97 88 77 72 66 50 55 54 42 41 52 83 96 81 97 99 99 98 98
18 20 29 33 30 37 43 44 37 24 15 15 19 26 37 50 64 95 97 97 96 86 72 85 83 80 56 41 65 68 77 77 98 96 98 98 98 98
27 30 31 33 35 44 44 44 39 22 19 23 26 32 43 64 95 97 97 96 96 95 92 91 80 87 97 93 94 98 94 99 98 97 96 98 98 98
32 37 52 50 44 43 44 43 33 23 24 28 33 46 73 91 95 96 96 97 98 92 88 100 93 93 89 96 100 100 97 98 97 97 97 97 96 97
43 67 50 43 43 42 44 45 29 24 27 31 46 75 76 89 96 96 97 96 97 96 96 96 96 96 98 98 98 97 97 97 97 96 96 96 96 97
51 64 42 42 43 44 44 38 24 26 33 41 55 60 93 94 94 95 93 97 96 97 96 96 95 95 96 96 96 96 96 96 97 96 96 96 96 96
55 46 39 40 39 41 40 29 22 27 29 33 69 88 91 91 89 95 96 95 96 97 96 96 96 97 96 96 96 96 96 96 96 96 96 96 94 54
52 50 43 43 44 45 38 23 23 29 39 80 91 95 94 93 94 96 96 96 96 96 95 95 96 96 96 96 96 96 96 97 96 95 91 43 24 22
59 55 50 48 49 45 37 27 28 38 86 95 96 95 96 97 96 96 96 96 96 96 95 95 96 96 96 95 95 94 80 49 31 24 27 35 43 48
66 61 52 50 49 45 32 30 32 81 96 96 97 98 97 98 97 96 96 96 96 96 96 95 90 71 47 30 23 23 27 35 43 45 47 50 50 50
65 57 54 52 50 40 31 33 74 96 96 96 97 96 96 96 96 96 96 96 94 71 38 23 20 25 36 45 50 50 50 50 50 49 49 50 50 51
64 57 53 52 47 33 34 66 96 96 96 97 96 96 97 97 96 95 94 79 44 28 44 56 56 54 52 53 59 64 67 70 70 72 77 82 87 89
63 55 53 50 38 36 57 97 97 97 96 96 96 96 94 74 39 29 41 59 59 58 62 74 82 86 91 95 90 93 97 92 88 85 86 82 84 84

GFSNE_700_rhum_015.txt.gz
RH
28 18 15 14 13 12 12 11 11 33 8 11 7 8 8 7 10 21 25 22 23 25 29 32 32 32 68 93 97 98 94 99 100 99 100 98 98 97
17 14 12 11 12 13 14 14 12 11 16 9 9 7 7 7 9 10 9 9 8 9 12 18 21 31 32 31 56 78 89 87 98 100 99 100 97 99
18 13 12 13 14 14 15 16 17 14 13 10 10 8 7 7 6 6 6 6 6 6 6 7 14 29 28 33 36 50 66 76 84 97 99 99 99 99
13 13 12 11 12 14 16 18 20 19 16 14 12 10 9 8 7 6 6 5 5 6 6 6 8 19 33 32 35 58 64 66 76 76 92 98 99 99
10 11 13 16 17 22 24 24 22 19 17 16 17 12 11 10 8 7 6 6 5 5 5 5 6 14 28 46 52 63 75 75 77 85 90 92 85 91
12 14 15 18 20 20 20 19 16 15 15 19 24 17 12 11 10 9 6 6 5 4 4 4 5 9 28 44 48 46 66 93 93 89 84 78 84 81
13 15 17 17 17 16 16 15 17 21 40 55 34 30 16 15 12 10 8 6 5 5 5 6 7 9 30 51 52 50 43 79 58 67 88 75 73 65
16 16 16 16 14 16 19 23 28 90 84 92 83 47 27 22 16 24 69 86 86 62 36 17 42 44 44 58 52 52 49 44 41 47 48 78 62 64
18 15 14 16 21 22 24 30 29 30 41 43 42 40 40 22 36 77 100 98 98 69 42 58 65 70 57 61 58 52 46 42 40 42 48 57 64 69
15 18 19 21 26 29 40 78 45 34 33 33 36 29 22 19 27 55 45 50 44 49 76 90 83 82 77 65 55 52 45 40 38 36 35 37 50 76
19 23 23 26 33 48 100 53 36 30 32 35 29 21 26 26 37 58 61 94 71 68 87 95 88 96 87 68 59 57 48 41 39 43 46 55 53 71
21 24 28 35 40 98 87 52 39 35 33 27 17 18 28 32 54 100 100 95 92 77 92 92 95 100 80 69 69 77 74 52 60 58 71 77 81 93
27 30 32 40 90 47 46 44 44 44 39 25 20 23 32 53 84 97 97 96 94 86 95 96 92 100 100 82 84 96 82 74 91 95 93 97 93 96
41 42 39 41 43 40 41 42 47 47 34 26 28 31 44 58 75 89 97 96 98 96 98 99 93 98 97 90 86 90 100 91 86 86 87 95 98 96
50 45 44 44 41 42 42 48 54 44 30 29 31 52 75 72 77 95 96 95 95 100 98 99 100 99 94 89 91 99 100 99 92 93 96 98 99 97
59 48 52 49 45 45 45 49 45 33 37 46 76 96 88 90 88 89 91 95 98 97 97 97 97 95 94 96 100 100 98 96 97 96 96 96 96 96
57 55 53 50 45 43 47 46 32 32 43 95 99 95 90 91 94 100 99 98 97 96 96 96 96 96 97 96 98 97 97 96 97 96 96 96 96 97
60 64 61 57 52 52 47 32 31 50 99 98 97 98 96 97 98 97 97 96 96 96 96 96 96 96 96 97 96 96 96 96 97 96 96 96 96 96
70 69 64 58 56 53 45 35 50 99 97 97 97 96 97 98 96 97 96 96 96 96 96 96 95 96 97 96 96 96 96 96 96 96 96 97 96 95
73 68 62 59 56 51 39 52 97 98 98 97 97 98 97 96 97 97 97 96 96 97 97 96 96 95 94 94 95 95 94 96 96 96 95 93 88 68
68 63 61 58 57 42 47 96 98 97 96 97 98 97 96 97 97 96 96 96 95 94 84 57 42 28 28 29 28 28 32 34 33 36 39 42 45 50
67 59 58 58 46 44 92 98 97 97 97 97 97 96 96 96 95 90 71 53 41 47 60 62 62 60 60 60 59 60 59 60 60 59 60 63 61 57
62 56 56 49 42 89 97 97 97 97 97 96 86 41 31 36 59 72 74 74 77 81 88 92 92 95 94 94 92 87 81 80 78 79 80 77 78 76

GFSNE_700_rhum_018.txt.gz
RH
42 32 20 11 11 11 11 12 16 15 9 7 8 10 15 14 12 11 10 9 8 7 8 15 26 31 34 32 31 29 31 35 51 86 96 99 99 99
10 9 8 6 6 6 7 9 13 24 26 8 7 8 13 16 16 15 13 11 9 8 7 7 8 10 11 11 18 30 37 36 31 33 50 85 95 99
5 5 6 7 8 9 10 12 15 20 27 14 16 8 10 14 15 16 14 13 11 10 9 7 6 6 6 6 6 6 13 35 37 34 37 53 76 89
5 6 8 10 11 12 14 15 16 17 47 34 19 15 12 12 14 22 15 18 12 10 9 8 7 6 6 5 6 6 5 7 29 36 34 46 62 86
6 8 10 12 13 15 15 16 16 19 17 58 33 61 42 32 44 41 54 24 14 12 10 8 7 6 6 6 5 5 6 7 22 34 37 51 75 80
6 7 12 15 16 14 14 15 19 20 20 61 83 79 76 44 49 34 25 21 21 54 38 26 11 8 10 6 5 5 5 6 10 38 54 80 80 82
5 6 10 12 13 14 17 20 25 26 56 94 82 76 36 30 27 27 92 48 20 50 83 83 74 93 87 30 14 8 4 5 11 30 61 98 77 84
6 7 9 12 14 18 20 23 31 67 93 99 83 44 33 33 36 35 30 26 16 14 55 78 86 83 44 23 20 18 8 5 11 28 48 64 90 88
9 12 13 17 21 22 23 29 78 99 94 94 83 48 40 39 37 23 22 91 55 24 68 65 31 35 43 69 67 49 40 32 28 32 42 43 46 63
14 16 17 20 24 28 35 56 100 71 49 48 47 42 48 36 28 35 40 43 37 52 100 89 77 81 82 82 79 71 82 68 54 41 38 37 35 39
15 19 24 30 35 40 78 100 94 42 38 36 40 42 39 26 34 47 49 88 80 86 98 94 92 90 82 80 94 96 87 74 60 52 45 42 38 36
21 28 34 37 38 46 96 72 48 38 36 32 34 34 26 24 34 58 89 97 93 88 100 95 98 98 78 88 96 97 98 88 63 52 44 40 39 35
28 32 37 40 47 48 49 54 54 45 40 45 38 24 24 30 45 75 98 97 94 88 98 96 93 94 94 81 89 98 96 96 80 55 43 39 38 46
33 37 41 50 50 54 55 54 50 50 52 45 32 28 34 62 92 98 97 97 97 94 96 99 95 96 94 88 82 97 97 100 100 97 93 87 81 90
46 50 49 55 61 58 55 53 57 56 48 40 41 62 92 96 97 98 95 96 95 98 99 98 97 96 93 90 93 96 99 100 99 98 99 98 100 99
65 56 58 63 62 59 54 57 58 51 63 86 94 95 97 98 98 100 98 100 100 98 98 97 97 96 95 94 96 96 98 100 99 96 96 96 96 98
66 57 60 62 58 53 55 56 46 69 97 97 97 98 97 97 98 99 99 98 97 97 97 96 96 96 96 96 96 96 97 98 97 96 96 98 98 98
59 64 66 63 58 57 53 42 70 98 97 98 99 98 97 97 97 97 97 97 97 96 96 96 96 96 96 96 96 97 97 96 97 97 96 97 97 96
67 69 66 61 59 57 54 77 96 97 98 98 98 97 98 97 96 97 97 97 97 96 96 96 96 96 96 97 96 96 96 96 97 96 96 96 96 96
71 67 62 60 60 55 76 98 97 98 98 97 97 97 97 96 97 97 97 97 97 97 96 96 96 97 97 96 96 95 97 96 96 96 95 95 96 96
68 63 60 62 57 73 98 98 98 97 97 97 97 96 96 96 96 96 96 95 95 95 94 92 90 92 95 97 96 95 96 96 96 96 95 96 96 96
68 56 60 60 71 98 97 97 97 97 97 84 58 54 68 77 90 94 87 78 74 73 73 74 77 72 47 36 44 82 96 96 95 95 95 95 90 87
58 55 57 66 98 98 97 97 97 67 36 58 97 96 96 97 97 97 97 96 96 97 97 96 95 83 75 68 68 67 61 50 46 46 49 54 58 64

GFSNE_700_rhum_021.txt.gz
RH
8 5 5 4 4 4 4 5 8 5 3 3 4 5 7 9 10 9 10 10 13 16 10 10 12 10 10 8 10 15 31 38 42 44 42 55 51 80
5 5 4 4 4 4 4 5 8 15 12 5 5 7 7 10 13 15 14 12 12 12 12 12 11 8 9 10 8 9 11 22 30 34 36 35 47 60
5 5 5 4 4 4 4 6 10 16 32 11 12 8 8 11 11 30 40 38 18 18 34 31 18 13 9 8 9 8 7 7 12 16 16 24 54 59
5 5 5 5 5 5 6 6 9 13 25 60 20 21 15 14 28 48 44 42 29 14 14 16 19 36 26 9 8 8 8 6 6 7 8 9 18 47
5 5 5 5 5 6 8 10 12 20 47 92 52 23 26 66 67 45 36 26 21 20 24 25 31 32 39 23 10 8 8 7 6 6 6 6 10 21
5 5 6 6 7 9 12 16 26 40 45 86 49 65 92 86 87 54 28 26 21 26 30 24 18 15 30 76 76 55 42 12 7 6 6 6 8 18
6 6 6 7 9 12 36 45 55 76 78 79 69 99 97 77 49 36 36 27 23 29 22 17 31 34 42 78 100 100 100 32 7 6 6 6 6 10
6 6 6 8 12 16 23 33 82 100 100 100 100 100 87 56 40 40 45 40 24 20 28 23 38 35 39 58 81 89 87 39 23 7 6 6 6 6
7 8 9 14 22 29 32 38 71 100 100 100 100 99 76 52 43 44 44 33 22 20 41 34 66 74 85 88 86 74 55 55 25 12 6 5 6 6
9 12 19 23 28 37 74 76 100 98 80 86 87 68 51 50 53 50 34 27 25 31 56 71 85 89 93 93 91 92 96 85 66 13 9 5 4 5
11 18 26 27 32 63 100 100 76 46 51 51 52 48 49 51 48 43 33 47 37 52 76 96 90 93 95 91 95 97 95 98 87 45 28 5 4 4
11 20 28 35 47 97 100 97 62 56 50 43 44 48 48 37 40 61 78 79 76 81 89 95 91 96 89 82 97 97 97 99 98 72 51 16 8 7
18 26 30 42 92 93 93 74 66 64 55 58 52 43 37 49 75 92 99 99 95 87 91 97 93 93 97 88 96 98 96 96 100 89 81 71 51 34
31 34 41 84 75 62 65 61 59 64 64 54 47 54 81 89 88 93 99 100 99 98 99 100 97 95 95 92 95 96 96 97 99 100 89 68 60 54
39 46 55 60 61 64 59 60 67 66 60 71 89 90 91 93 95 98 93 99 98 99 99 99 98 97 100 94 92 96 98 96 99 99 100 75 55 49
43 55 59 62 65 61 58 61 60 68 100 100 98 97 95 98 97 99 97 98 97 97 98 98 98 98 98 94 91 98 97 96 96 98 97 99 99 96
61 59 63 65 57 56 57 56 64 98 97 98 96 94 97 97 98 98 97 97 97 96 97 97 96 97 96 95 95 98 98 98 96 97 96 96 98 98
65 71 68 62 59 59 55 61 97 97 98 97 97 97 97 98 98 97 98 98 97 97 97 96 97 97 96 96 96 97 97 96 97 97 95 96 98 98
74 70 65 61 62 59 76 97 96 98 97 97 97 98 98 98 97 97 98 97 97 97 97 97 96 96 96 96 96 96 96 96 97 96 97 97 96 96
70 66 62 63 63 82 97 97 97 97 97 97 96 96 96 96 96 96 96 96 96 96 96 96 96 97 97 96 96 96 96 96 96 96 96 96 96 96
67 60 62 66 87 98 98 98 97 97 95 95 96 97 97 96 96 96 97 96 96 95 96 96 96 96 96 97 96 96 97 97 96 96 95 96 95 96
63 58 64 90 97 97 97 97 86 65 96 98 99 100 100 100 98 96 96 96 96 96 90 87 95 95 96 96 96 96 96 96 96 96 96 97 96 94
59 60 87 97 97 97 97 65 65 98 100 100 99 71 57 63 80 93 99 99 98 97 96 96 88 76 74 94 96 96 96 96 96 96 96 97 97 97

GFSNE_700_rhum_024.txt.gz
RH
12 8 7 6 6 6 6 5 5 6 8 7 4 3 4 5 7 14 16 10 8 8 8 8 10 16 70 97 99 98 52 11 11 11 10 22 61 78
9 7 6 6 6 6 6 5 5 6 5 4 3 4 4 7 11 32 23 15 12 11 17 20 34 59 30 33 74 100 19 8 9 11 9 8 11 26
7 7 6 6 6 6 6 5 5 7 11 4 5 6 6 9 12 18 20 23 22 20 37 34 26 23 75 73 34 52 77 45 25 10 10 9 10 11
7 7 6 6 6 6 6 5 6 9 19 18 10 12 15 16 16 18 30 43 65 66 67 32 25 22 30 92 88 26 18 19 16 10 27 22 8 7
8 7 7 7 6 6 6 7 10 15 22 52 28 29 28 30 44 45 51 46 56 54 40 28 28 30 28 23 23 34 14 57 84 95 48 42 21 7
8 8 7 7 7 7 9 13 30 58 58 58 94 82 67 69 94 100 63 46 39 40 30 30 34 26 17 21 23 20 22 75 94 94 99 98 27 7
8 8 8 8 9 12 29 36 59 68 88 100 96 98 98 100 83 72 67 44 32 36 33 26 20 17 20 28 37 35 33 56 78 96 98 100 27 7
9 9 8 9 11 16 24 32 67 100 100 100 100 99 77 80 61 52 44 41 30 39 36 14 25 23 33 44 60 74 76 66 75 80 96 100 51 7
10 10 10 12 16 22 26 36 79 100 100 100 98 74 58 64 63 50 48 46 36 28 39 21 38 48 68 77 87 91 94 97 78 60 82 85 47 8
12 13 14 14 22 34 54 79 99 100 78 76 77 70 89 62 69 62 57 38 39 47 76 54 63 64 75 82 95 96 96 95 89 86 56 36 28 8
13 15 21 27 34 69 100 100 98 64 64 64 57 62 62 61 67 89 88 92 71 81 90 85 82 78 82 84 96 97 98 100 100 94 87 60 21 10
14 16 24 34 39 90 100 89 74 64 56 53 54 50 59 80 97 100 100 99 96 83 88 91 90 90 76 86 96 96 96 96 90 87 87 83 42 7
21 24 29 39 80 90 71 72 73 75 60 61 59 76 91 94 100 100 100 100 99 95 96 100 100 96 98 92 93 97 98 97 91 91 88 80 54 10
34 35 41 60 68 64 68 65 64 67 67 80 91 91 98 100 99 100 100 99 100 100 99 100 100 100 99 90 93 98 98 96 96 96 97 96 76 32
43 49 56 63 67 67 62 67 69 77 98 93 97 100 100 100 99 97 96 99 99 98 98 99 99 96 97 95 94 97 97 96 98 96 97 98 83 67
51 57 63 68 68 64 63 62 89 100 100 99 98 98 98 97 97 97 97 97 94 96 98 96 96 96 96 96 97 97 97 98 96 96 97 97 100 67
62 61 66 64 56 57 62 95 98 98 96 98 98 97 97 97 98 98 97 95 98 96 96 97 97 95 94 96 97 97 96 96 97 98 98 97 99 92
62 70 64 59 61 70 94 95 99 98 98 98 98 98 98 97 97 98 98 98 98 97 97 96 97 97 97 98 98 98 96 96 97 96 96 98 99 98
69 66 61 62 76 98 99 98 97 98 98 98 97 96 97 98 96 96 96 96 97 97 97 97 95 97 98 97 98 96 96 96 99 100 96 96 98 98
66 62 59 76 98 98 99 98 98 97 97 98 98 100 99 98 95 96 97 97 97 97 96 97 96 97 97 97 96 96 96 97 97 95 97 97 96 97
63 57 69 99 99 99 99 96 93 97 99 100 100 99 81 69 95 99 98 98 97 96 96 97 95 96 97 97 95 98 99 98 98 96 96 96 95 96
57 57 97 99 99 100 86 79 98 99 100 100 98 86 73 60 75 90 99 98 97 96 96 95 96 95 97 96 96 96 97 99 98 98 97 97 93 94
53 87 98 100 100 81 88 97 98 100 100 100 94 87 83 90 98 88 79 88 95 94 98 97 94 96 96 96 96 95 96 96 97 100 99 98 97 96

GFSNE_700_rhum_027.txt.gz
RH
15 14 12 10 9 8 8 7 6 8 11 10 8 8 6 5 5 8 9 8 9 9 11 10 10 16 60 14 14 24 72 96 100 100 94 100 54 15
14 13 12 11 10 10 8 7 6 6 6 8 8 7 6 7 11 18 19 20 17 16 17 18 72 99 45 28 26 46 99 93 88 100 100 100 97 48
14 13 14 16 15 11 8 7 7 8 8 7 7 6 5 8 12 21 43 42 31 29 35 65 70 35 41 34 25 78 69 98 100 100 98 96 99 100
17 21 21 16 12 8 8 7 8 8 14 10 6 7 10 14 17 23 34 45 50 63 73 58 42 48 40 24 25 48 50 51 88 93 100 97 95 97
24 20 15 11 10 9 8 9 9 11 14 26 20 20 31 45 51 52 49 43 56 63 60 47 41 34 30 30 34 31 26 38 54 55 46 58 80 79
18 15 12 10 10 10 10 12 14 19 23 37 74 86 92 76 85 74 49 50 46 43 40 39 42 38 37 30 22 19 16 16 16 14 13 31 79 94
17 14 12 11 11 12 15 16 20 25 47 98 100 100 96 73 66 57 52 44 41 46 41 32 31 23 20 24 26 27 29 32 41 53 59 42 64 81
18 15 12 11 12 14 16 21 38 95 100 100 100 99 78 61 58 58 63 56 41 46 40 25 51 33 42 49 55 64 66 67 55 74 68 83 77 83
16 12 10 12 15 15 16 28 44 98 100 100 98 77 60 56 72 84 65 68 72 76 91 62 83 71 74 75 78 77 79 79 82 83 69 80 76 66
11 11 13 14 16 28 38 62 100 100 90 75 70 61 78 80 76 89 98 97 94 88 93 79 85 80 84 82 83 82 89 94 94 90 95 89 81 55
10 13 17 22 32 45 93 100 89 62 64 59 58 63 66 92 100 99 96 99 86 85 88 96 85 83 83 80 85 87 97 100 100 100 99 95 88 58
10 14 23 37 49 89 100 77 62 62 55 54 56 78 100 100 100 100 99 97 97 88 91 100 94 93 78 76 81 94 95 100 99 93 89 90 83 76
16 21 32 49 86 69 66 65 63 64 62 80 96 98 98 97 97 98 100 100 99 93 96 100 94 94 97 85 86 100 100 98 96 95 94 94 86 78
30 35 47 62 64 64 61 60 64 78 97 96 97 96 95 96 97 99 99 99 100 100 100 99 96 98 94 88 91 98 99 94 99 97 97 98 92 78
41 46 58 62 64 58 60 74 98 98 93 89 94 97 98 97 98 95 97 98 98 97 98 98 98 97 96 90 90 95 93 94 96 96 96 94 96 30
46 52 63 65 62 62 81 98 99 98 96 97 97 97 98 97 97 96 94 96 96 96 98 98 97 96 96 93 96 96 96 96 98 98 99 97 100 77
53 58 60 55 53 79 94 98 98 97 97 99 96 96 97 96 97 97 97 97 96 95 97 98 97 96 95 96 95 96 96 96 96 96 98 97 100 96
55 62 57 52 80 92 93 92 98 97 97 95 99 99 98 97 96 97 97 96 95 97 97 98 97 97 96 97 95 96 96 96 96 95 95 96 99 82
60 60 53 77 92 94 95 96 94 98 99 100 100 100 97 84 88 96 94 96 97 98 97 98 96 96 97 96 96 92 96 96 97 97 97 97 99 98
59 54 70 94 94 95 92 91 98 98 100 98 100 99 92 76 72 90 98 96 95 97 97 97 96 96 97 97 90 94 98 97 96 96 96 97 93 96
52 60 95 94 96 87 90 100 99 98 99 100 100 100 97 89 86 85 97 100 97 97 96 97 95 95 97 96 98 99 98 97 97 96 96 97 97 95
52 93 96 97 83 78 99 99 98 99 99 98 100 100 100 99 99 97 87 80 82 97 97 95 93 96 97 96 95 95 100 99 98 97 96 96 96 96
74 94 97 83 66 97 98 98 99 100 98 100 100 98 99 95 100 100 99 99 97 79 98 97 96 97 96 95 96 95 97 99 99 99 96 97 96 96

GFSNE_700_rhum_030.txt.gz
RH
12 12 12 12 12 15 18 20 20 16 10 14 14 12 8 7 7 8 8 8 7 8 11 13 14 12 12 16 100 100 100 100 97 72 69 91 92 96
12 12 14 15 16 18 19 19 16 13 14 14 14 10 8 8 9 9 11 14 13 16 23 24 24 25 83 78 67 99 100 100 100 100 99 97 94 100
14 15 16 16 18 19 19 17 14 11 11 14 12 10 9 8 9 17 44 37 38 31 30 29 32 41 86 93 87 91 77 100 100 100 96 88 89 100
14 15 17 19 20 20 18 16 13 12 12 11 9 8 8 7 9 17 40 52 63 55 46 39 42 38 40 53 64 48 43 74 88 92 68 80 100 100
17 20 22 22 19 18 16 13 12 11 12 16 15 12 12 19 33 44 47 55 67 52 43 46 41 36 35 36 35 50 95 100 96 76 61 36 64 83
22 22 19 17 16 13 12 12 13 15 19 26 38 37 74 82 96 89 59 58 47 43 40 38 39 38 38 35 33 32 31 31 28 23 19 17 21 43
20 18 17 14 11 10 12 14 20 27 58 90 82 97 100 86 76 67 56 49 41 34 39 54 62 56 49 49 43 29 22 18 18 18 19 19 24 51
19 18 13 8 8 10 13 18 32 79 92 99 100 93 79 70 61 56 52 53 74 72 76 66 80 70 73 74 72 65 52 49 47 41 38 74 70 65
17 10 7 8 10 12 17 31 54 82 100 99 92 68 59 53 60 74 88 96 82 71 92 74 84 74 75 74 77 76 73 72 71 67 71 73 59 54
10 7 8 10 15 27 37 59 83 63 63 62 56 55 66 84 100 100 95 90 85 81 99 86 72 72 81 81 82 84 80 74 74 77 80 79 75 72
7 8 13 19 32 44 90 66 52 51 49 50 58 84 99 98 100 97 91 98 86 78 97 92 77 81 84 81 88 96 97 92 90 94 98 99 98 98
6 8 18 35 40 51 60 56 50 48 45 65 84 92 100 100 100 100 99 96 92 74 95 96 84 93 87 82 91 96 96 98 97 94 92 91 96 97
10 18 30 42 48 56 56 52 53 70 83 85 87 96 97 97 97 98 100 100 95 88 97 100 92 94 100 92 89 97 95 91 95 97 97 95 96 97
24 30 41 48 55 54 51 59 86 91 89 89 93 94 92 94 96 97 98 98 99 100 99 100 96 97 98 91 91 94 98 99 97 96 97 97 96 96
32 38 46 53 54 48 67 96 95 93 91 88 88 94 96 97 97 95 97 97 97 97 98 98 97 97 99 94 93 96 95 99 97 96 96 98 98 97
36 42 51 54 52 66 94 95 94 95 94 93 93 94 95 91 83 94 96 96 94 96 98 98 96 96 94 96 98 98 99 94 96 100 98 97 99 94
40 45 50 47 61 87 89 96 97 96 95 95 94 93 90 87 78 90 97 96 96 94 95 98 96 96 97 98 99 96 96 98 97 96 96 98 98 98
43 50 49 60 87 89 88 83 97 95 94 95 98 98 92 90 75 85 99 97 95 96 95 96 96 97 98 97 93 89 94 96 97 97 99 99 100 30
51 53 54 88 89 90 81 95 93 94 95 99 100 98 100 100 100 91 94 96 97 94 97 96 96 98 97 92 96 97 97 96 96 96 97 100 100 29
52 52 87 91 91 75 94 95 94 95 97 95 98 100 100 100 100 97 89 94 95 96 96 96 96 96 96 96 99 94 97 96 96 98 98 98 99 81
47 79 94 93 73 91 98 97 97 98 97 98 100 100 100 99 99 99 99 100 92 96 96 96 94 91 98 97 97 97 96 97 97 95 96 97 96 98
58 90 94 74 88 98 96 97 98 98 98 100 100 100 100 100 98 96 98 97 82 96 96 94 93 98 96 96 96 96 97 97 97 97 96 96 96 95
83 91 73 82 97 96 96 98 98 98 98 100 100 100 100 99 100 94 100 99 96 96 96 96 94 98 94 93 96 97 97 96 96 91 94 96 95 95

GFSNE_700_rhum_033.txt.gz
RH
13 13 12 11 11 12 13 15 16 10 6 8 11 13 15 15 14 12 11 10 10 9 8 8 7 7 7 7 7 7 9 21 72 89 100 98 98 100
13 12 11 10 11 12 15 17 18 17 14 12 14 14 13 11 10 10 12 16 15 19 21 25 35 26 24 20 17 23 57 96 100 93 96 97 100 100
13 11 11 11 13 15 16 16 17 16 14 13 10 7 6 7 9 17 30 37 39 38 46 52 44 42 58 50 73 71 45 93 100 98 97 97 98 99
12 11 13 15 16 17 18 18 14 10 9 7 4 4 7 11 16 32 47 66 89 90 69 51 45 42 61 65 90 70 87 57 43 72 84 83 90 91
13 15 17 18 19 20 17 12 8 6 7 12 10 14 22 35 33 40 55 73 77 58 46 50 48 44 45 44 41 51 52 68 100 94 95 98 98 100
18 20 20 21 21 15 9 6 7 9 12 20 26 40 64 57 65 75 66 52 44 43 50 63 69 72 72 69 62 46 37 31 28 34 54 72 58 53
21 22 23 20 13 7 7 8 12 20 28 36 51 86 68 59 59 52 52 56 67 72 77 70 77 76 76 79 79 74 69 57 40 31 24 20 20 19
24 24 19 11 6 6 9 15 30 44 71 84 77 61 53 52 55 76 80 83 66 72 92 68 87 76 73 74 72 72 70 71 74 69 49 33 30 29
24 17 9 6 7 10 15 26 32 49 67 74 54 50 56 84 90 88 86 83 70 79 100 73 84 70 74 72 76 81 84 78 72 73 74 70 57 46
16 8 6 7 14 23 29 34 40 48 49 44 52 80 92 95 98 94 86 84 78 83 99 85 78 80 84 83 93 98 98 92 83 76 74 74 74 72
8 5 10 18 26 33 39 43 43 40 42 69 83 86 91 96 100 96 89 91 78 76 95 90 78 80 81 91 99 100 100 95 83 72 67 67 72 80
5 10 20 27 32 37 46 45 37 50 71 74 80 86 97 100 100 99 97 94 92 74 96 94 87 91 81 82 96 100 88 86 83 80 79 81 85 96
9 19 24 30 33 43 44 42 61 81 81 82 84 87 91 94 96 96 98 99 91 84 97 100 90 96 99 83 90 94 88 91 93 94 95 92 94 98
18 23 29 32 42 43 42 68 86 86 86 88 85 86 85 83 83 82 82 97 98 99 96 100 95 98 96 89 93 93 97 98 98 97 96 97 96 95
25 30 35 41 45 42 72 90 93 93 89 86 86 88 88 87 87 72 66 94 98 97 97 97 97 98 99 95 94 97 90 94 96 95 96 96 97 98
29 34 41 46 46 74 90 95 91 91 92 92 92 92 93 90 87 76 73 88 88 91 98 97 97 97 96 98 97 95 96 94 95 96 92 95 96 97
34 37 42 43 69 86 88 84 92 92 90 95 94 92 90 91 94 95 90 92 96 90 95 97 97 95 96 99 96 96 97 100 98 97 96 97 98 70
35 41 45 62 86 85 71 89 95 91 94 95 95 96 88 91 92 95 95 95 95 94 93 97 96 97 96 95 93 84 98 97 96 97 98 90 95 34
39 47 54 85 86 70 88 93 92 97 98 98 98 94 89 94 95 95 92 86 94 96 98 98 96 93 85 94 97 99 98 96 96 98 98 81 46 9
46 49 80 89 72 85 96 97 98 99 99 97 94 96 95 92 92 93 94 89 87 98 99 98 96 86 87 90 95 96 97 96 99 97 97 70 16 8
46 75 92 77 80 97 98 100 100 98 96 98 97 96 98 96 95 95 90 96 92 97 98 95 89 92 99 96 97 96 96 96 97 96 99 100 75 23
58 94 81 79 97 98 99 97 96 97 96 97 98 100 100 99 93 89 89 86 88 95 96 97 92 94 98 95 96 97 96 96 94 96 97 98 100 97
87 85 77 96 97 98 93 95 96 97 98 97 98 100 100 96 98 96 96 92 94 95 96 97 93 91 94 96 98 96 96 96 95 95 90 94 98 97

GFSNE_700_rhum_036.txt.gz
RH
14 15 14 12 11 11 11 12 12 9 9 10 11 12 12 10 6 5 5 6 8 8 9 9 8 9 9 12 18 18 12 10 13 12 11 21 54 79
16 14 13 12 12 13 14 16 18 18 12 11 10 10 8 4 5 7 12 18 24 29 31 32 37 36 75 94 69 34 36 27 18 16 28 34 97 94
15 13 13 12 13 15 18 19 20 19 16 10 9 5 3 4 8 18 26 35 37 32 31 40 41 44 52 67 82 91 100 100 100 100 97 98 88 94
14 13 13 14 16 18 20 19 17 12 7 5 3 3 6 15 18 26 31 36 35 31 34 34 38 49 46 45 43 44 56 44 98 100 100 100 100 96
15 14 15 16 17 18 18 15 9 5 6 10 10 16 19 22 29 33 34 28 37 56 71 75 80 75 74 75 74 77 82 88 56 57 76 97 100 99
16 17 18 18 19 17 12 6 6 8 14 21 27 31 35 38 39 34 40 62 66 73 70 74 81 84 82 84 82 74 74 69 64 61 48 38 47 79
19 19 19 19 16 9 6 8 14 19 24 31 49 46 38 38 48 66 71 68 60 78 78 73 83 74 73 76 73 69 68 68 66 66 67 62 48 31
18 20 20 15 8 6 13 19 26 30 38 48 42 35 45 75 74 74 77 78 58 74 83 68 84 65 71 80 89 92 83 77 72 70 68 66 63 55
23 22 15 7 7 14 18 19 22 37 52 46 41 66 77 80 80 80 77 75 72 80 95 65 78 67 79 78 92 100 100 95 89 80 75 73 65 62
23 14 7 6 13 19 20 21 29 40 38 44 78 82 87 89 95 93 85 82 74 76 97 76 80 73 78 83 98 100 100 97 89 83 79 76 71 68
15 7 6 13 21 25 27 28 35 34 52 78 82 86 89 93 100 98 93 82 56 57 94 86 77 79 80 96 94 97 90 84 86 84 84 81 74 70
8 6 14 22 27 29 35 38 34 59 69 68 76 83 91 96 100 98 94 83 71 63 94 88 85 95 69 89 98 100 95 98 97 97 94 93 89 85
6 11 20 25 28 34 40 40 66 73 74 79 80 85 88 84 86 90 97 99 87 87 98 100 88 95 97 82 93 98 97 100 99 98 98 97 98 100
9 19 25 27 33 41 43 72 78 78 77 84 87 84 79 81 84 87 96 98 100 100 97 100 92 96 96 88 82 86 90 97 95 98 98 98 97 95
19 26 28 33 40 43 78 83 82 78 85 85 85 85 86 80 88 88 96 95 98 97 98 93 94 95 98 96 88 92 90 88 97 96 100 97 97 97
24 27 32 39 45 78 87 86 80 93 91 91 88 88 85 79 91 95 89 84 83 87 98 95 98 97 92 100 96 96 97 94 88 87 88 92 94 98
26 31 33 40 67 85 80 79 96 94 94 93 89 86 82 84 90 95 98 93 93 88 87 97 98 97 97 95 95 96 95 96 98 93 99 100 95 63
28 32 39 55 84 76 73 91 97 95 94 92 93 93 85 84 85 91 97 97 93 96 86 90 90 84 80 89 92 93 98 97 96 97 100 61 38 38
32 40 48 84 80 74 93 92 90 94 94 96 97 96 89 86 89 88 87 88 88 97 91 95 95 81 77 89 98 97 96 98 96 98 73 24 23 23
37 46 80 84 75 94 93 92 94 96 99 100 100 100 96 84 81 84 85 83 85 92 96 96 95 84 90 96 96 95 96 97 96 99 80 18 13 15
40 73 87 80 96 94 98 98 98 97 97 99 100 98 96 90 88 93 92 97 93 95 95 93 94 95 98 98 92 94 96 96 97 97 99 21 14 14
56 87 82 98 96 98 98 97 97 99 100 100 100 100 98 98 96 94 96 91 92 92 96 93 97 96 92 87 91 96 96 96 96 98 98 74 42 29
82 83 97 96 98 96 94 95 98 98 98 98 100 100 97 89 90 91 92 92 92 95 95 96 95 93 90 87 91 96 98 95 96 90 92 96 99 100

GFSNE_700_rhum_039.txt.gz
RH
16 16 16 15 13 12 11 10 10 10 11 10 9 8 8 7 5 4 4 6 9 12 12 12 13 13 14 15 17 22 30 92 99 97 100 97 100 100
16 17 15 13 12 12 11 11 12 12 9 9 7 7 5 4 5 7 12 17 19 20 22 22 22 22 23 23 23 25 27 29 78 92 88 79 93 87
17 15 14 13 13 13 13 15 15 14 10 6 6 4 5 7 11 19 27 29 22 20 27 45 55 56 53 52 55 54 49 36 47 100 100 100 92 90
16 14 14 13 13 15 17 16 14 12 8 5 4 6 8 12 21 24 23 24 39 56 60 63 59 58 64 66 64 61 60 60 60 59 84 95 95 96
15 14 13 14 16 18 16 14 11 6 5 11 10 12 14 24 22 25 34 53 61 64 69 68 71 72 70 71 68 69 68 69 69 69 67 73 90 93
16 15 16 17 18 17 14 10 6 7 14 18 21 19 28 28 34 52 53 58 63 66 61 65 70 71 70 73 71 69 67 68 65 62 64 66 63 59
15 17 19 20 18 14 9 6 10 15 19 21 34 36 31 45 62 61 63 62 59 67 59 56 65 62 64 71 74 78 82 82 82 79 71 62 61 65
17 20 21 18 15 10 6 11 20 22 24 36 35 32 61 72 71 70 69 67 42 59 57 42 62 61 73 76 83 88 82 80 82 82 82 78 74 64
21 20 18 15 9 6 9 16 19 26 42 40 38 73 75 79 77 73 72 68 57 65 75 43 64 64 78 90 100 92 84 79 78 79 80 79 77 78
21 18 16 9 6 9 16 18 22 36 39 47 76 79 85 89 92 86 80 72 69 70 81 48 68 70 75 99 99 96 89 88 88 87 87 87 88 86
18 16 9 6 10 19 21 22 31 36 52 76 83 85 89 91 97 95 90 85 66 50 85 68 69 72 70 94 96 90 92 92 93 94 90 90 96 97
17 9 6 12 20 22 27 36 35 58 70 68 73 83 88 94 99 100 95 90 83 50 87 71 74 86 54 66 92 96 91 98 97 97 99 100 96 96
8 6 10 19 22 27 36 40 63 74 71 71 80 83 87 88 88 91 96 100 92 88 98 94 81 87 91 69 68 88 93 92 91 97 98 98 100 98
6 8 17 21 26 34 42 70 78 73 70 83 86 85 79 82 82 83 94 100 100 99 94 96 90 95 89 82 79 89 90 97 96 92 94 97 96 98
8 18 23 25 31 40 71 82 73 71 88 88 85 84 86 84 82 84 88 93 96 98 99 96 99 93 93 94 90 93 94 87 95 98 92 93 97 98
13 22 25 29 40 68 86 78 80 93 91 89 87 85 87 81 85 87 82 82 80 81 98 95 99 95 95 94 96 93 96 97 89 87 94 96 98 100
21 23 26 33 62 83 75 89 98 95 94 93 90 88 87 86 87 88 83 75 79 77 83 97 97 96 98 91 84 92 93 98 96 96 77 38 23 39
22 24 32 54 83 72 85 92 99 96 95 94 96 94 90 89 85 81 82 80 76 81 88 91 80 78 79 72 85 87 96 98 97 100 34 23 19 39
24 31 47 81 73 91 93 94 91 95 96 98 98 98 94 93 95 92 91 87 87 88 94 94 93 86 79 71 80 98 93 97 98 100 47 25 26 17
30 43 80 77 92 93 93 93 94 96 98 97 95 98 98 95 95 94 95 92 90 85 92 98 95 89 90 90 93 94 95 98 98 98 91 50 28 28
39 78 80 93 94 92 94 97 99 100 99 99 100 99 98 95 94 94 91 94 95 94 90 96 92 93 95 98 94 89 90 98 98 96 99 100 82 70
72 79 92 94 93 91 91 94 97 100 100 100 100 100 100 100 95 93 90 85 92 91 91 92 92 92 87 89 93 93 90 94 98 99 95 97 83 98
76 90 93 94 92 91 90 94 98 99 100 96 97 100 100 100 100 100 97 92 88 86 88 91 92 91 87 86 90 94 93 88 92 95 96 97 98 100

GFSNE_700_rhum_042.txt.gz
RH
21 19 18 17 16 14 13 12 12 12 12 10 9 8 7 5 5 4 4 6 6 8 10 12 15 16 13 13 13 14 14 14 21 72 54 18 91 84
20 18 18 16 14 13 12 12 11 11 9 9 8 7 6 5 5 7 9 11 13 17 18 20 26 34 38 42 43 42 40 39 36 29 24 39 65 84
18 18 16 14 13 12 12 11 11 11 8 6 6 6 5 6 9 14 20 21 17 22 42 50 50 50 52 50 49 50 51 52 50 49 49 48 97 100
18 16 14 14 12 12 12 11 10 11 9 6 6 4 5 9 15 24 22 24 42 47 53 58 54 54 56 58 58 59 58 57 55 54 54 56 56 56
16 15 13 12 12 12 12 11 11 11 9 6 4 6 9 13 22 21 31 52 53 56 59 65 62 60 62 60 62 63 60 57 56 54 54 56 56 57
16 13 13 14 13 12 12 13 12 8 5 7 12 12 13 24 27 43 53 56 58 62 60 54 47 46 44 50 61 65 68 69 67 66 65 66 66 66
13 14 14 12 12 13 14 12 7 5 9 17 17 19 26 28 54 59 59 60 59 66 53 49 60 42 42 63 65 69 73 72 72 74 74 72 70 68
14 14 12 12 14 14 11 6 7 14 18 21 27 32 34 65 68 65 67 64 45 58 79 36 53 37 67 69 81 78 71 70 73 75 74 74 75 75
14 13 14 15 13 8 5 6 13 19 25 32 33 43 72 76 78 71 68 64 61 68 84 37 52 54 70 82 92 80 81 83 82 84 86 87 86 84
14 15 15 11 6 5 6 12 18 23 33 36 59 75 80 83 90 84 75 64 60 56 92 56 56 62 64 88 96 96 96 92 91 93 92 90 91 90
14 14 8 5 5 8 15 19 22 31 40 68 78 79 83 91 96 89 81 80 54 50 83 63 58 64 63 75 89 88 88 95 98 98 100 100 100 96
12 6 4 5 7 17 22 25 29 42 68 69 67 83 90 90 94 98 93 80 72 57 87 63 64 81 48 61 72 87 86 94 96 98 95 95 96 100
5 5 5 7 15 21 25 32 45 73 69 65 79 85 86 90 91 95 91 91 84 82 93 87 69 82 86 66 56 78 86 87 93 98 100 98 96 97
5 5 8 15 20 23 31 51 75 72 66 81 84 87 87 87 91 93 91 95 95 93 88 96 83 90 86 82 71 72 86 90 96 97 98 98 98 97
6 10 16 19 22 30 55 78 71 73 87 88 88 86 89 90 92 90 86 85 83 94 96 92 96 95 98 93 77 75 93 86 88 93 99 97 69 88
14 16 19 21 31 61 80 77 89 95 92 89 87 88 88 84 87 90 80 74 67 71 90 94 98 98 96 92 90 86 92 93 87 98 91 64 42 33
17 18 22 29 62 76 78 95 97 96 94 96 94 89 87 87 90 95 91 82 84 79 73 85 97 97 98 96 82 83 88 92 93 97 98 78 40 24
18 21 27 56 75 76 87 89 96 94 95 96 97 95 92 92 91 91 91 87 87 89 85 82 88 81 81 90 94 85 87 92 94 98 100 99 51 30
21 25 50 74 77 89 89 90 92 96 96 96 98 100 97 94 96 90 86 84 84 88 95 89 90 88 74 67 74 97 88 91 91 99 100 99 99 45
24 47 74 80 89 88 90 92 95 96 97 99 100 100 100 97 95 94 92 88 83 82 88 96 97 92 88 78 74 91 96 92 88 98 99 98 97 100
45 74 81 88 90 90 92 94 98 99 100 100 100 99 98 97 95 99 96 96 91 87 88 92 93 90 87 83 83 90 98 97 96 95 98 98 96 100
71 81 87 88 89 90 91 93 96 100 100 99 99 98 98 99 98 96 96 93 92 88 88 94 90 88 87 81 82 93 93 96 96 98 98 97 92 93
78 84 86 88 89 91 92 95 98 100 100 100 100 98 98 95 98 99 96 95 92 85 86 89 92 90 87 82 87 91 97 96 91 92 98 97 97 98

GFSNE_700_rhum_045.txt.gz
RH
73 65 35 21 20 18 16 15 14 14 14 11 9 7 6 5 5 5 5 4 4 5 5 7 12 12 12 14 18 24 29 32 34 34 33 28 22 66
71 46 22 20 18 16 15 14 13 12 10 9 7 6 7 7 6 4 4 6 7 9 14 15 24 35 40 42 44 43 43 40 39 40 43 46 49 81
59 23 19 18 16 15 14 13 12 9 6 6 6 8 7 6 4 5 9 10 12 15 24 44 46 51 51 52 51 46 43 44 44 45 47 50 50 60
23 19 18 16 15 14 13 11 8 7 7 6 7 6 5 5 7 12 16 17 18 41 45 52 55 56 57 53 47 40 44 44 47 50 48 45 45 43
20 18 17 15 14 12 10 8 7 9 9 7 4 4 6 11 14 20 22 24 50 52 55 60 61 54 48 46 45 47 42 42 48 54 56 55 56 54
18 17 15 13 12 10 7 8 10 8 6 4 4 6 11 14 27 29 35 55 55 60 60 57 53 54 51 47 47 45 55 57 56 59 65 66 65 63
17 14 13 12 9 8 9 9 6 4 4 6 11 13 14 24 31 52 59 59 60 63 56 51 56 40 43 47 65 64 60 61 69 69 74 75 75 70
14 13 11 8 8 9 7 5 4 5 7 14 16 20 27 36 64 65 64 65 56 56 70 51 48 41 45 62 69 69 72 77 72 70 73 75 80 80
12 10 9 10 9 6 5 4 5 8 17 22 24 32 47 72 74 69 69 70 61 61 75 42 51 38 49 64 82 89 89 82 79 87 90 87 86 84
10 9 10 8 5 5 5 5 8 14 21 27 37 60 76 73 78 87 81 72 55 68 72 65 60 48 48 62 86 93 100 98 95 88 87 89 91 88
9 10 7 5 5 5 6 8 14 18 25 42 72 77 74 85 94 95 82 73 64 57 67 84 60 54 46 59 76 82 84 84 88 97 98 93 90 91
10 7 5 5 7 9 14 17 17 23 47 70 67 71 87 88 90 91 91 85 78 53 76 77 61 72 40 51 58 70 70 74 82 98 94 92 92 92
7 5 5 8 12 15 18 21 30 59 69 65 75 82 83 84 87 91 97 98 90 70 87 93 61 68 78 56 51 63 71 67 87 97 96 98 100 100
6 5 7 13 14 17 24 40 70 70 69 79 81 84 85 87 89 94 94 99 99 92 85 94 73 75 78 73 60 58 71 74 95 95 94 84 93 100
6 8 13 13 15 24 48 72 70 77 80 82 84 85 88 89 91 94 92 95 89 96 100 97 88 82 89 88 78 70 73 71 93 92 94 92 89 100
9 13 14 14 23 53 69 76 84 84 86 86 88 92 92 93 96 98 92 89 78 78 94 100 95 92 89 94 94 84 85 89 85 96 98 85 88 100
12 14 14 22 55 66 74 83 86 87 88 91 93 92 92 92 94 99 98 89 84 79 72 87 93 93 95 97 88 89 82 78 85 95 96 88 90 96
13 14 21 53 67 76 80 82 88 90 93 94 95 94 91 91 91 91 94 93 87 84 80 81 79 74 84 86 97 91 79 83 83 90 98 98 82 96
15 20 50 66 76 80 81 85 88 95 96 97 97 98 95 90 95 92 90 90 86 88 86 88 86 85 75 63 67 98 84 91 80 82 96 99 94 98
21 48 67 75 79 82 85 91 94 98 99 100 100 99 99 95 92 91 92 91 88 84 78 88 91 91 91 82 64 68 98 92 91 85 86 90 96 97
47 67 75 77 80 85 93 97 100 100 100 100 100 99 98 96 93 94 94 95 94 88 77 83 90 94 95 87 78 76 89 98 99 96 91 83 81 92
67 72 76 79 83 88 93 95 98 100 100 100 97 97 96 96 95 96 95 89 85 80 74 86 91 90 88 84 85 90 90 96 98 96 97 98 90 80
74 76 76 77 79 82 86 93 97 97 98 98 97 97 97 96 98 100 93 88 78 75 82 84 89 91 88 89 98 96 97 100 94 91 96 91 90 95

GFSNE_700_rhum_048.txt.gz
RH
66 65 65 68 66 39 21 19 17 16 17 14 12 9 7 6 5 5 4 4 3 3 3 4 6 7 9 10 14 24 32 34 39 40 39 38 39 41
68 67 71 70 44 21 19 17 16 15 14 11 8 7 6 5 5 4 3 3 4 6 7 10 14 22 32 43 45 42 42 43 41 40 42 42 42 48
71 75 75 47 21 19 17 16 14 12 10 7 6 6 5 4 4 3 4 6 7 9 15 21 45 47 55 53 51 50 48 42 41 36 36 41 42 45
79 78 39 21 19 18 16 14 11 8 7 6 6 5 4 4 4 5 8 11 13 18 39 50 54 59 60 54 49 44 40 37 34 32 29 27 34 40
78 31 21 19 17 15 13 10 7 7 7 6 4 4 4 5 6 10 14 18 27 49 54 57 64 61 52 48 52 51 41 35 36 35 32 41 50 53
23 20 19 17 15 12 8 7 6 6 5 4 4 4 6 8 14 21 21 39 50 56 57 64 60 55 57 54 44 44 43 39 40 47 55 60 63 64
20 19 16 14 11 8 7 7 6 5 4 4 4 6 9 15 30 40 57 56 55 60 59 56 54 55 49 43 52 57 54 54 56 63 70 70 75 76
18 15 13 9 7 7 7 6 5 5 5 6 8 12 14 30 59 71 67 61 55 62 58 45 63 50 46 47 55 64 64 62 72 80 75 78 78 74
14 12 8 7 7 6 5 4 5 8 10 15 15 22 35 68 71 71 71 74 64 63 65 53 64 45 46 47 63 73 80 86 89 82 86 92 89 81
11 8 7 7 6 5 4 5 8 10 14 16 26 50 72 72 75 87 85 81 64 63 74 75 61 41 42 51 62 77 91 94 94 94 94 82 83 86
8 8 7 6 5 5 6 9 10 11 20 44 68 70 72 84 92 91 87 80 66 64 74 78 58 39 35 36 58 75 86 91 84 81 77 72 84 86
8 8 7 6 5 7 11 11 12 29 55 60 64 74 83 82 86 93 94 90 81 64 84 74 53 57 31 35 45 68 83 77 77 73 71 82 86 90
8 7 6 6 9 12 12 17 38 58 60 68 74 77 79 81 86 91 92 92 86 80 98 93 68 71 74 46 44 63 71 67 68 70 80 91 94 96
7 5 7 11 12 12 19 46 62 64 70 72 74 76 75 79 82 86 88 94 95 96 95 96 79 80 76 69 57 56 72 73 71 71 82 89 96 97
6 8 11 12 12 20 50 62 67 71 71 73 75 78 82 84 86 90 91 95 89 96 100 100 92 84 86 82 74 65 73 64 69 76 83 84 87 93
8 10 11 11 19 51 62 70 75 73 73 74 79 84 85 84 86 91 87 86 80 80 94 100 95 92 87 91 88 81 92 77 66 76 81 80 89 98
10 11 12 19 53 61 69 73 78 78 81 86 89 88 86 83 85 88 89 82 81 84 81 90 96 91 94 98 94 93 86 74 74 79 83 81 86 99
11 12 17 51 62 68 69 70 80 86 90 92 93 92 89 86 84 86 87 87 84 86 84 90 82 69 75 81 97 94 85 73 71 77 82 83 74 96
14 16 48 62 69 71 73 80 87 92 93 94 94 94 93 88 88 88 87 87 84 86 86 87 81 88 80 67 73 98 87 76 80 74 80 79 84 93
17 43 62 69 69 70 76 84 92 95 96 97 96 95 96 95 90 88 90 90 88 83 77 88 96 96 96 86 67 71 96 93 90 80 74 72 80 87
40 65 70 70 70 72 78 86 91 92 94 94 97 97 97 95 91 92 91 93 95 90 78 79 94 100 99 90 82 78 83 96 96 93 86 82 86 85
64 71 71 66 66 70 78 82 83 92 96 97 97 97 98 98 96 94 94 91 88 81 77 88 96 95 93 91 96 90 81 81 92 97 98 99 95 88
72 73 66 65 68 74 74 77 89 97 100 98 97 97 97 96 98 99 96 88 85 76 93 96 92 94 98 98 96 91 92 94 88 85 94 94 97 96

GFSNE_700_rhum_054.txt.gz
RH
99 99 95 71 70 70 71 69 70 69 64 34 20 20 19 16 12 10 8 6 5 4 3 2 2 2 2 2 3 4 4 5 6 8 11 18 28 36
97 100 87 83 76 75 73 76 77 61 28 20 20 17 13 10 8 6 5 4 3 2 2 2 2 3 3 5 6 9 13 16 27 31 38 39 43 55
100 98 98 81 80 80 81 82 52 22 21 20 15 11 8 6 5 4 3 3 3 3 3 3 4 6 9 13 21 31 42 45 45 46 46 45 45 46
99 90 85 83 86 88 83 39 21 20 18 14 10 7 5 4 3 3 3 4 4 5 5 9 16 25 35 43 46 48 51 52 50 46 41 37 35 35
94 97 99 92 93 82 27 21 19 15 11 8 6 5 4 3 3 3 4 4 7 21 39 44 49 51 53 53 53 55 54 51 48 42 38 38 37 33
93 98 98 93 44 22 21 18 13 10 7 5 4 4 3 3 4 4 6 26 36 46 47 46 52 54 59 59 60 58 55 51 50 48 41 36 32 30
97 98 52 22 22 19 15 11 8 6 5 4 4 3 4 5 6 22 33 33 34 49 46 38 52 52 56 58 58 56 57 61 59 49 39 35 35 35
76 23 22 20 16 13 9 6 6 5 4 4 4 5 6 8 36 38 33 30 26 46 42 38 54 48 55 58 59 62 67 67 63 51 45 43 45 42
23 21 17 14 10 7 6 5 5 4 5 6 7 8 12 42 44 37 38 42 42 51 52 42 58 48 55 54 62 70 71 64 57 54 52 50 47 44
19 15 12 8 6 5 4 3 4 4 7 8 9 21 46 47 46 45 48 49 47 57 68 47 57 49 53 56 69 71 68 64 61 60 51 48 53 53
13 9 7 6 4 3 3 4 5 7 8 10 37 52 56 60 62 58 61 56 48 51 73 63 62 56 50 51 63 68 74 75 74 71 68 60 57 62
7 6 5 3 3 5 6 6 6 7 11 45 56 61 64 66 71 74 74 70 68 47 74 65 62 70 39 39 49 58 68 73 75 78 76 68 69 72
5 4 3 4 6 7 7 7 8 16 46 49 52 58 69 74 80 88 93 88 76 69 86 87 66 76 74 52 51 58 64 66 67 71 77 75 77 82
4 4 5 7 7 7 8 9 30 50 50 53 63 74 77 84 89 91 93 94 94 89 88 99 84 86 78 68 60 55 60 63 71 74 77 82 86 86
4 6 7 8 8 9 12 45 52 52 57 67 74 80 83 83 89 90 92 96 90 99 98 96 93 89 86 75 64 53 60 65 82 75 72 72 74 77
7 8 8 8 8 13 49 53 58 63 66 71 77 83 87 87 89 94 87 86 79 82 93 96 92 90 80 77 69 61 82 77 76 80 73 63 63 61
8 8 8 10 19 54 59 63 68 70 75 80 87 88 87 87 88 93 92 86 80 74 70 85 90 87 83 84 80 87 92 88 84 79 73 62 62 64
9 9 10 20 52 54 56 61 68 73 80 87 88 87 85 84 81 84 87 87 82 81 76 78 72 66 70 79 98 89 80 75 76 77 82 78 64 70
11 10 15 51 54 53 56 68 73 84 88 88 87 87 85 84 88 89 89 84 75 72 71 79 80 89 87 78 87 99 91 89 85 77 78 77 77 74
11 12 50 54 52 56 67 73 85 89 89 91 89 91 94 93 92 93 93 88 79 73 81 100 100 99 95 89 77 87 98 93 86 81 81 81 81 84
13 44 56 53 58 66 73 84 89 89 88 92 96 94 97 96 92 92 92 96 98 98 93 95 98 98 98 96 88 87 90 98 98 98 98 96 90 81
42 59 54 57 64 71 79 85 89 89 91 94 95 98 97 97 92 90 94 97 99 99 96 96 95 94 98 97 93 89 89 95 97 98 99 100 99 91
60 55 57 64 69 74 79 81 81 87 89 91 94 96 93 86 92 95 95 97 99 95 94 91 96 97 97 97 97 96 96 96 92 89 97 97 97 97

GFSNE_700_rhum_057.txt.gz
RH
100 100 100 100 98 98 98 84 85 75 73 74 72 62 33 22 22 19 16 13 9 7 6 4 3 2 2 2 2 2 2 2 2 3 4 5 6 8
100 97 100 100 94 94 96 98 91 83 77 72 66 28 22 21 16 13 9 7 6 4 3 3 2 2 2 2 2 3 3 4 6 9 13 21 26 33
96 100 100 95 98 99 84 87 85 85 83 64 23 21 18 14 9 6 5 4 3 3 2 2 2 3 6 11 16 19 21 23 26 34 39 37 39 41
99 99 99 99 98 98 98 94 93 88 30 22 20 15 11 7 6 4 3 3 3 3 4 7 19 29 29 29 28 32 35 37 40 41 44 48 47 45
100 100 99 98 98 98 96 92 38 22 20 16 13 8 6 5 4 3 3 3 4 7 28 31 29 29 28 32 36 36 39 41 46 47 49 50 47 42
100 100 98 98 97 93 42 22 21 17 13 9 6 5 4 3 3 3 3 4 8 34 32 23 25 32 33 36 33 34 40 46 49 50 50 48 43 38
99 99 98 96 37 23 22 17 14 10 7 5 4 3 3 4 4 5 5 15 28 32 30 28 38 40 42 38 37 37 44 52 54 54 53 50 45 42
100 96 31 23 22 17 14 10 7 6 4 4 4 4 4 6 6 8 28 30 18 34 39 33 41 38 44 44 47 52 56 56 52 51 53 54 52 49
45 24 22 18 14 11 7 6 4 4 4 5 5 6 6 7 18 35 34 29 29 41 47 30 41 36 46 46 57 64 68 66 59 55 52 52 48 44
23 18 15 11 8 6 5 4 4 6 6 6 7 8 14 37 42 34 31 34 39 52 68 37 46 38 42 45 63 68 70 70 72 69 62 60 55 47
16 12 8 7 5 4 4 4 6 7 7 8 12 37 48 48 52 45 52 54 51 54 70 72 55 47 48 47 60 65 65 69 71 77 76 70 63 58
9 7 6 4 4 4 5 6 6 7 7 20 49 52 53 57 68 75 75 72 75 62 77 83 68 71 51 45 46 56 61 71 70 77 77 72 63 56
6 5 4 4 5 6 7 7 7 7 25 38 44 56 65 72 78 85 93 93 90 85 98 95 72 72 73 54 47 54 64 65 67 69 75 74 71 69
5 5 5 5 6 7 7 7 10 36 41 50 55 60 64 75 84 89 92 97 94 93 92 98 81 82 77 64 54 55 63 62 70 72 79 82 82 79
5 5 6 8 8 8 8 21 44 45 50 55 62 71 75 74 79 82 85 87 83 94 98 98 94 88 85 77 70 58 58 62 80 81 84 82 81 85
7 8 9 9 8 8 32 45 47 50 55 64 74 75 75 75 77 79 77 78 72 75 95 100 99 95 87 81 72 65 82 78 83 92 87 78 79 78
9 10 11 10 10 41 52 53 53 59 69 78 77 77 77 76 80 86 86 82 76 70 65 82 91 89 86 94 91 87 93 93 89 86 84 78 78 79
11 12 12 11 46 50 51 55 61 69 78 78 81 82 80 81 79 83 88 92 89 88 88 95 92 88 87 93 97 89 83 81 81 80 83 76 68 75
14 12 12 48 51 50 55 60 70 76 77 82 86 88 85 82 89 90 90 92 87 88 93 99 93 93 88 80 92 98 92 81 82 82 85 85 77 79
11 14 49 49 48 56 62 70 75 76 82 86 89 88 91 91 90 92 94 94 90 89 91 98 98 97 95 92 83 90 99 94 91 82 84 84 83 84
18 45 46 47 55 63 70 72 73 78 80 82 90 94 93 92 89 90 93 96 97 96 95 97 97 98 98 96 90 92 97 98 98 97 95 94 93 83
43 43 45 53 60 67 69 69 75 78 80 85 89 91 93 97 91 80 83 90 95 97 94 96 96 96 98 97 97 95 95 96 96 96 96 97 97 86
40 44 52 58 64 65 66 69 72 71 66 62 65 74 88 94 93 88 83 87 96 97 96 94 97 97 97 97 97 96 93 94 83 86 96 96 97 100

GFSNE_700_rhum_060.txt.gz
RH
96 97 99 99 89 100 99 100 97 99 95 97 99 96 86 81 75 50 24 23 20 16 11 8 7 6 4 3 3 2 2 2 2 2 3 4 5 5
99 100 96 100 96 100 100 100 99 96 96 92 92 94 88 64 26 22 20 16 11 8 7 6 4 3 3 2 2 2 3 6 12 14 16 18 21 22
99 100 100 99 100 100 100 99 100 99 97 93 93 82 32 22 19 14 10 7 6 4 3 3 3 2 3 3 6 14 18 16 14 14 15 19 25 32
100 100 99 94 99 100 98 99 99 98 98 89 47 23 21 15 10 7 6 4 3 3 3 3 3 4 8 22 22 16 14 15 13 14 15 16 22 29
100 100 100 99 100 98 98 99 98 94 42 23 22 15 10 6 5 4 3 3 3 4 4 4 9 27 30 22 23 26 23 20 19 18 17 17 20 28
100 100 100 98 100 96 97 88 45 23 20 15 11 6 5 4 3 3 3 4 4 5 11 28 33 29 32 38 38 37 34 30 27 25 24 23 23 28
99 99 98 98 98 92 58 23 20 15 10 6 5 4 3 4 4 4 4 4 7 26 32 29 32 40 50 50 46 44 43 42 41 37 34 32 32 34
100 98 97 95 43 24 18 14 10 7 5 4 3 4 5 5 5 5 10 25 23 28 27 27 41 40 49 46 49 49 49 50 49 46 40 40 41 45
97 88 32 23 18 14 10 7 6 4 4 4 5 6 6 6 10 27 31 29 29 40 46 32 51 48 56 57 60 61 65 66 62 53 48 44 47 52
28 24 18 14 10 7 6 5 4 4 5 6 6 6 10 29 34 30 36 37 42 55 73 56 68 63 64 67 71 77 78 73 67 63 58 55 57 60
17 13 9 7 7 6 5 4 5 6 6 7 9 28 38 42 48 45 53 55 58 65 71 78 68 60 58 57 61 63 70 72 69 67 63 61 63 65
9 7 7 6 6 5 5 5 6 7 7 14 43 47 51 55 60 67 70 68 68 53 69 72 64 69 48 46 48 53 63 73 72 73 71 65 63 59
7 6 5 5 5 6 7 8 7 7 20 36 44 50 57 68 75 75 72 69 66 66 79 78 64 69 70 53 46 57 63 66 68 67 69 64 56 54
5 5 5 6 8 8 8 8 8 29 40 47 50 59 68 70 72 68 70 70 74 84 84 91 76 76 68 60 53 50 59 63 65 69 74 77 77 74
5 6 7 8 9 9 9 10 37 42 44 51 62 69 70 69 73 70 76 77 78 90 94 88 75 70 73 70 70 70 76 69 84 83 78 75 78 85
5 6 7 8 10 9 19 38 41 44 55 63 67 70 72 72 77 80 77 78 75 78 92 100 100 99 93 91 86 81 87 80 81 87 81 76 77 79
5 6 8 10 9 30 40 42 49 57 66 70 71 72 75 76 80 81 81 78 77 79 84 94 100 97 98 98 90 97 96 88 87 82 80 76 78 86
5 7 8 14 38 42 44 56 59 64 67 70 75 77 79 82 78 73 73 83 86 88 92 93 92 86 83 85 96 86 75 70 69 76 84 76 68 82
6 7 27 34 38 47 53 58 62 64 68 73 78 82 86 85 84 81 78 76 83 90 94 95 93 94 83 74 84 98 90 89 80 77 86 90 83 82
14 28 31 37 46 51 57 59 60 65 69 72 75 77 81 87 91 90 84 78 77 83 87 99 99 96 94 90 86 96 98 93 95 88 89 87 89 90
26 29 38 44 49 54 55 57 59 63 62 58 59 63 67 73 84 93 93 90 82 88 89 94 98 99 100 96 90 92 97 97 96 92 88 85 78 75
29 37 41 46 50 53 54 54 56 53 53 54 56 56 57 67 84 94 95 84 75 83 94 95 95 94 98 96 96 93 89 92 97 97 95 98 99 88
34 41 42 46 50 51 55 57 55 55 56 58 57 53 61 70 76 89 85 84 78 78 94 88 92 98 97 96 96 92 88 88 89 86 98 96 88 96

GFSNE_700_rhum_063.txt.gz
RH
95 98 99 100 99 91 96 96 100 99 100 99 99 99 99 100 98 96 93 86 56 24 22 19 15 11 8 7 6 5 4 3 3 2 2 2 2 3
95 99 98 100 100 98 99 100 99 100 100 99 100 98 100 99 95 91 73 31 23 19 14 9 8 6 5 4 3 3 3 2 2 2 4 7 11 12
95 94 96 93 82 99 100 100 100 99 99 99 98 99 99 95 66 24 21 17 12 7 6 4 4 3 3 3 3 3 2 3 6 13 16 14 12 12
93 94 87 86 99 100 100 100 96 98 99 100 99 98 57 23 19 15 10 6 5 4 3 3 3 3 3 3 4 6 12 20 21 18 17 21 20 18
92 95 92 100 99 100 97 99 100 99 98 88 82 51 23 14 9 6 5 4 4 4 4 4 4 6 11 20 24 25 22 21 25 28 28 26 23 22
100 100 100 99 99 98 98 98 98 97 94 63 25 16 10 6 5 4 4 4 4 4 7 14 21 23 25 26 25 27 31 36 36 34 31 30 30 29
100 99 99 99 95 97 97 96 80 26 19 13 8 6 5 4 4 4 4 4 5 16 20 23 35 37 44 45 46 50 52 51 48 44 39 36 34 32
98 98 98 98 98 94 37 21 15 11 7 6 5 4 4 4 4 4 4 14 19 31 30 36 49 51 57 60 64 64 64 62 60 56 52 48 46 44
97 100 94 91 52 21 16 10 7 7 6 5 5 5 5 5 5 11 26 30 34 46 41 29 42 31 36 43 56 65 71 77 78 72 61 56 53 50
93 71 28 18 14 10 8 7 6 5 5 6 6 6 6 11 27 30 37 41 44 49 44 26 29 26 29 35 46 56 68 77 79 80 76 69 61 54
20 15 11 8 8 7 7 6 5 5 6 7 6 9 26 36 40 44 52 48 44 46 50 32 28 24 23 30 39 50 56 63 76 85 83 78 68 58
9 8 8 7 6 5 5 5 6 7 7 9 29 38 41 46 55 56 51 53 53 47 59 34 26 30 17 25 33 46 52 63 70 72 69 64 60 55
6 4 4 4 4 5 6 6 8 8 21 36 39 42 54 62 63 63 64 61 58 64 79 70 54 57 56 46 50 67 71 75 70 68 70 67 61 57
2 2 2 3 4 5 6 7 10 30 35 41 53 59 62 66 70 68 68 67 69 78 81 85 77 83 80 70 63 67 76 76 75 79 78 80 82 80
2 2 2 3 4 6 7 23 30 36 45 51 55 58 62 65 68 65 70 68 75 85 90 92 89 89 86 78 74 72 73 71 87 82 77 75 77 82
2 2 3 5 6 16 25 30 39 46 49 51 53 58 62 66 72 70 66 63 63 74 92 96 94 94 89 84 82 77 89 82 81 76 72 72 76 81
2 4 5 12 20 26 34 40 44 46 50 53 56 62 67 70 78 81 82 77 69 62 73 91 100 100 96 97 80 93 87 79 80 81 80 74 90 97
4 6 16 21 29 35 41 44 46 48 50 53 56 57 59 61 66 77 83 84 80 74 74 87 86 83 81 82 94 77 76 72 79 87 87 78 83 95
7 17 22 30 36 38 41 43 46 49 50 52 50 48 48 51 55 69 83 85 82 79 75 86 87 88 78 66 83 96 79 88 80 82 83 75 77 87
17 22 30 36 39 40 40 40 42 44 44 45 49 53 51 53 61 65 73 82 78 72 67 84 97 93 91 84 74 88 97 84 81 78 76 74 78 77
21 28 36 39 41 41 42 43 44 47 49 51 51 50 50 57 73 76 74 81 82 74 64 72 96 100 98 91 82 84 92 97 93 82 75 72 70 68
26 35 39 40 44 46 47 48 49 48 48 49 49 48 48 49 62 71 61 50 49 56 64 68 88 95 96 93 79 80 83 87 99 96 97 98 95 80
30 40 42 41 41 42 45 47 48 49 52 55 58 60 56 46 48 63 50 36 34 36 50 58 75 91 93 95 92 84 86 82 84 84 92 97 97 96

GFSNE_700_rhum_066.txt.gz
RH
96 100 100 100 100 96 99 96 99 96 92 98 100 97 99 99 99 100 99 100 100 93 85 54 25 23 20 16 12 8 7 6 6 5 4 4 3 3
99 98 100 100 100 99 95 100 100 100 100 100 99 100 98 98 98 99 98 96 92 68 29 23 19 13 10 8 7 6 5 4 3 3 3 2 2 2
94 100 93 94 100 100 100 100 100 96 100 100 98 99 96 98 98 98 92 86 74 40 17 11 8 6 6 5 4 3 3 3 2 2 3 5 6 9
84 100 99 99 100 99 99 100 100 100 99 98 98 99 97 96 96 97 90 71 23 9 6 5 4 4 3 3 3 3 4 6 8 10 13 14 17 18
90 94 100 100 99 99 100 100 99 98 97 98 99 96 96 78 31 17 14 9 6 4 4 4 4 3 4 8 10 11 12 14 15 16 17 18 22 26
99 99 96 97 100 100 99 99 98 97 98 98 86 52 26 17 11 7 6 5 4 4 4 4 8 14 19 19 20 24 29 32 34 34 33 32 33 36
100 77 99 99 99 98 98 97 96 97 90 36 18 14 9 7 6 5 5 4 4 5 11 21 25 30 35 37 35 29 25 28 32 41 52 56 52 48
98 100 99 98 98 98 95 93 58 20 16 11 8 7 6 5 5 5 5 5 9 31 28 34 41 34 30 23 18 19 19 22 25 30 38 47 62 66
99 96 96 97 96 84 34 19 15 10 8 7 6 5 5 6 6 6 16 26 32 46 38 32 36 21 22 19 22 22 24 29 32 34 35 38 49 64
97 96 78 35 20 16 12 9 8 7 5 5 6 6 6 7 15 27 32 40 45 45 43 40 31 25 26 22 27 30 35 37 39 42 42 42 46 54
25 17 13 10 9 8 7 5 5 5 5 5 5 6 13 26 31 41 47 41 40 47 52 49 44 36 37 38 42 50 44 44 46 48 53 55 50 47
9 8 7 6 4 3 3 3 4 4 5 6 13 23 30 40 46 46 46 45 47 49 63 50 50 55 42 50 54 62 65 73 71 70 69 66 57 52
4 3 2 2 2 2 2 3 4 6 14 22 28 39 47 50 49 50 50 50 51 56 66 60 56 65 63 58 57 67 73 72 67 68 72 73 74 72
2 2 2 2 2 2 4 6 14 21 29 38 43 47 47 49 51 54 60 59 61 65 62 68 64 70 70 65 62 64 73 72 65 72 73 74 76 78
2 2 2 2 3 6 13 20 28 35 38 39 41 44 47 50 54 56 64 66 69 82 77 74 69 70 78 76 71 72 70 64 79 70 72 72 73 77
2 2 2 4 9 17 25 31 34 36 37 39 42 45 47 50 54 55 60 66 67 75 88 85 76 74 80 85 80 77 85 76 70 74 73 78 87 95
2 3 5 12 20 27 30 32 34 36 38 41 43 44 42 42 45 48 51 56 65 69 70 85 79 72 80 90 81 90 82 77 74 76 86 82 98 100
3 5 12 20 26 28 29 30 33 36 38 39 38 39 42 45 48 56 63 63 62 68 72 72 67 67 78 81 94 81 74 71 72 73 74 67 69 92
3 8 17 26 30 31 31 32 35 36 38 41 44 46 45 43 44 50 65 68 66 63 62 74 71 66 71 70 79 97 77 75 75 75 83 79 69 74
4 15 22 30 33 34 35 36 38 41 44 45 45 45 46 46 45 44 49 58 50 36 34 38 53 67 74 82 69 81 98 81 77 68 73 79 81 73
10 20 26 35 38 39 40 42 42 44 45 47 50 53 56 59 61 54 45 53 64 62 62 62 44 50 75 91 84 78 83 96 92 86 78 78 72 63
19 24 29 39 40 41 42 43 43 44 46 48 51 54 57 60 64 64 50 47 64 66 47 32 31 40 60 88 87 81 81 89 96 96 96 96 95 88
24 28 32 42 45 44 45 46 48 53 58 64 69 71 74 76 69 68 54 49 61 40 28 26 30 53 59 81 90 84 88 84 83 82 91 96 95 96

GFSNE_700_rhum_069.txt.gz
RH
72 73 78 89 98 100 100 100 100 99 100 96 98 100 100 99 99 100 100 96 98 100 99 95 98 96 81 39 28 23 18 15 10 8 7 6 6 5
73 76 84 92 98 98 100 100 99 100 100 100 96 100 100 100 99 99 98 96 96 92 95 97 93 91 78 51 23 13 9 7 6 5 4 3 3 3
69 74 79 90 89 100 99 100 98 100 99 100 100 99 98 99 98 97 97 95 100 95 100 95 74 36 18 10 7 6 5 4 3 3 3 4 5 6
49 62 81 89 95 79 90 99 100 100 98 100 100 99 98 98 97 96 96 96 87 43 19 14 8 6 6 5 5 4 3 3 5 6 8 9 9 10
43 50 78 83 90 92 90 100 97 89 96 100 98 98 96 96 96 95 62 21 14 8 6 5 5 4 4 4 4 6 10 13 15 17 18 20 19 17
50 71 98 93 95 83 94 93 92 98 95 95 95 93 96 80 35 17 11 7 6 5 5 4 4 6 11 15 20 26 27 24 19 15 9 8 8 9
86 98 100 100 95 87 95 99 99 96 94 92 99 51 19 13 8 7 6 4 4 4 4 10 18 23 31 33 30 26 19 12 10 10 11 12 13 14
100 99 99 100 100 98 98 98 97 98 98 35 18 10 8 6 4 4 4 5 8 25 22 34 37 31 32 31 19 14 14 14 14 13 13 15 15 16
98 96 98 98 96 92 89 96 78 23 14 9 7 5 3 3 4 5 12 21 32 41 34 29 36 34 38 36 24 20 20 20 18 17 18 22 23 24
98 97 97 81 86 62 27 14 10 8 5 3 2 2 3 5 13 23 32 36 36 35 36 35 42 39 44 44 45 43 46 40 32 28 26 30 32 32
66 47 24 14 11 9 7 5 3 2 2 2 3 6 14 23 31 34 33 31 32 39 46 43 44 45 46 51 56 61 62 62 60 56 56 56 57 56
9 7 5 4 3 2 2 2 2 2 3 6 13 22 28 31 32 32 35 38 42 44 54 40 40 44 39 46 52 60 64 68 64 61 63 63 61 58
2 2 2 2 2 2 2 1 2 6 11 18 25 28 30 33 36 37 40 45 51 58 64 51 42 48 43 40 48 62 68 70 66 65 66 64 66 67
2 2 2 2 2 1 2 4 9 16 23 29 31 32 35 39 42 45 49 50 52 63 72 73 59 58 47 42 45 59 69 70 70 67 66 66 68 71
2 2 2 2 2 3 7 14 21 27 31 33 36 37 39 42 44 42 43 44 47 53 59 66 67 63 55 48 49 63 73 64 80 75 67 68 75 84
2 2 2 2 4 8 16 23 28 32 34 35 38 39 40 38 39 42 45 51 54 58 65 68 66 58 51 56 56 69 83 79 73 74 70 72 79 93
2 3 2 4 8 16 23 26 30 33 35 35 34 34 36 39 42 41 40 40 43 49 51 51 44 36 39 52 52 76 90 81 80 70 70 68 77 83
3 3 3 6 13 22 27 31 32 33 33 34 36 39 40 40 41 44 46 45 42 40 48 54 53 56 56 41 49 54 82 76 73 72 75 68 61 75
3 3 4 9 18 27 32 34 35 34 36 38 40 42 43 45 49 54 56 58 57 45 47 64 67 63 48 28 32 58 84 81 78 75 80 76 67 67
4 4 5 15 22 32 37 39 40 40 40 42 44 45 46 48 50 55 58 61 63 54 45 56 49 35 30 28 29 39 91 92 88 73 69 68 70 72
6 8 11 20 25 34 40 43 44 44 43 44 46 48 51 58 65 72 74 71 69 56 46 52 47 35 34 44 49 48 78 96 96 90 81 76 72 66
9 16 21 25 29 37 45 46 46 47 48 53 62 65 66 69 73 75 78 72 69 49 49 55 46 36 54 68 53 58 84 93 98 96 96 92 81 72
7 17 25 30 34 39 48 53 54 58 66 68 69 71 74 76 78 80 78 73 61 45 57 53 44 39 56 59 60 76 96 94 90 86 93 96 97 97

GFSNE_700_rhum_075.txt.gz
RH
49 54 59 63 71 87 97 93 99 98 98 98 96 99 94 100 99 98 98 99 96 96 96 99 100 99 100 100 100 99 94 93 95 93 91 82 68 50
42 44 45 47 49 53 62 72 86 99 100 100 99 100 99 98 97 99 99 96 97 98 100 99 100 100 100 98 96 92 83 52 30 22 18 14 10 8
52 50 50 51 52 50 47 47 51 61 79 95 99 100 100 99 99 100 100 100 100 99 98 99 93 75 53 30 22 16 13 11 9 8 7 6 6 5
51 54 57 66 67 60 56 63 58 66 96 98 98 99 99 100 84 98 100 100 99 95 68 25 15 11 8 8 7 6 5 5 4 4 3 4 4 6
46 49 60 65 68 71 76 65 65 96 76 96 97 100 99 96 100 98 97 80 33 14 9 7 5 4 3 3 3 4 5 8 10 13 16 18 20 19
56 58 64 72 70 85 76 76 77 98 95 96 98 100 99 99 98 79 22 10 6 4 2 3 5 10 15 18 20 21 21 20 18 19 19 21 20 13
50 54 57 71 92 84 91 99 100 91 100 99 98 99 98 77 22 9 5 2 2 5 13 17 20 20 20 20 21 24 26 28 29 29 29 28 18 10
66 79 82 98 94 86 99 98 99 98 97 96 91 55 13 9 4 2 2 6 14 13 17 17 16 20 22 26 28 31 34 36 37 36 35 32 28 25
70 74 78 89 96 95 96 94 87 80 56 22 11 7 4 2 2 3 13 16 14 13 15 19 19 23 24 26 30 34 38 41 44 45 44 44 44 44
6 6 6 8 13 15 12 11 9 6 4 4 3 2 2 2 8 16 15 16 17 18 17 24 26 32 35 34 34 35 39 41 43 45 47 50 50 49
5 4 3 2 2 2 2 2 2 2 2 2 2 2 5 12 16 16 17 19 22 26 25 26 28 31 34 40 45 48 46 43 39 40 44 51 54 53
7 5 4 3 2 2 2 2 2 2 2 1 2 8 14 19 18 18 19 22 24 29 28 30 32 28 27 35 40 38 34 35 33 36 45 55 58 59
11 8 5 3 2 2 2 2 2 2 2 4 10 17 20 19 20 21 24 24 27 29 27 27 29 30 29 28 32 36 37 37 32 33 40 58 66 65
14 12 8 4 2 2 2 2 2 3 6 13 18 21 21 22 25 25 26 28 30 32 34 37 40 41 41 39 33 38 41 42 44 34 28 42 72 75
13 12 8 4 2 2 3 3 4 8 14 19 23 25 26 27 26 27 30 33 36 39 43 46 47 49 50 48 40 38 33 28 27 24 22 26 61 77
12 12 8 4 3 3 3 4 7 13 20 24 26 27 27 28 30 32 36 38 41 47 49 50 53 55 56 55 45 41 41 33 28 29 27 32 66 78
12 9 7 4 3 4 4 5 11 18 24 27 29 30 32 34 37 40 41 42 42 46 53 63 68 66 64 59 46 48 42 33 40 40 38 40 67 76
12 8 6 4 4 4 6 7 12 19 28 33 36 37 40 43 46 48 45 44 49 59 62 67 68 62 61 51 53 49 43 35 34 36 40 49 63 76
15 10 6 5 5 6 8 12 16 22 30 39 44 48 50 51 48 48 52 58 61 63 67 68 71 64 52 42 46 59 45 41 36 38 55 81 74 72
21 14 9 5 5 7 8 13 20 25 31 41 50 53 53 51 58 66 66 63 65 66 66 72 68 59 48 45 40 47 52 45 45 40 51 79 81 79
29 21 12 6 5 8 11 14 21 32 38 44 54 60 63 66 72 69 70 70 67 67 65 69 64 52 50 53 51 49 45 60 63 55 56 80 77 67
38 25 15 8 6 11 16 18 22 39 48 51 59 68 76 77 73 73 71 70 74 70 68 64 52 49 51 55 50 48 46 46 54 55 79 97 91 78
50 32 16 7 7 16 22 21 20 39 54 57 66 77 79 77 78 69 70 74 71 69 64 53 50 52 52 50 44 46 52 47 46 44 82 94 93 96